Time,TemperatureF,DewpointF,PressureIn,WindDirection,WindDirectionDegrees,WindSpeedMPH,WindSpeedGustMPH,Humidity,HourlyPrecipIn,Conditions,Clouds,dailyrainin,SoftwareType,DateUTC
2013-02-01 00:03:00,28.2,12.4,29.64,NNW,333,5.0,11.0,51,0.00,,,0.00,Wunderground v.1.15,2013-02-01 05:03:00,
2013-02-01 00:04:00,28.2,12.4,29.64,North,356,5.0,11.0,51,0.00,,,0.00,Wunderground v.1.15,2013-02-01 05:04:00,
2013-02-01 00:05:00,28.1,12.3,29.64,NNW,338,3.0,11.0,51,0.00,,,0.00,Wunderground v.1.15,2013-02-01 05:05:00,
2013-02-01 00:07:00,28.1,12.3,29.64,NNW,330,1.0,11.0,51,0.00,,,0.00,Wunderground v.1.15,2013-02-01 05:07:00,
2013-02-01 00:08:00,28.0,12.6,29.64,NNW,337,4.0,11.0,52,0.00,,,0.00,Wunderground v.1.15,2013-02-01 05:08:00,
2013-02-01 00:10:00,28.0,12.2,29.64,NW,323,5.0,5.0,51,0.00,,,0.00,Wunderground v.1.15,2013-02-01 05:10:00,
2013-02-01 00:12:00,27.9,12.5,29.64,NNW,345,5.0,5.0,52,0.00,,,0.00,Wunderground v.1.15,2013-02-01 05:12:00,
2013-02-01 00:14:00,27.9,12.5,29.64,West,276,6.0,6.0,52,0.00,,,0.00,Wunderground v.1.15,2013-02-01 05:14:00,
2013-02-01 00:16:00,27.9,13.0,29.64,NNE,25,5.0,6.0,53,0.00,,,0.00,Wunderground v.1.15,2013-02-01 05:16:00,
2013-02-01 00:17:00,27.9,13.0,29.64,NNW,340,5.0,6.0,53,0.00,,,0.00,Wunderground v.1.15,2013-02-01 05:17:00,
2013-02-01 00:19:00,27.8,13.3,29.64,NNW,340,3.0,6.0,54,0.00,,,0.00,Wunderground v.1.15,2013-02-01 05:19:00,
2013-02-01 00:22:00,27.8,13.3,29.64,North,349,5.0,6.0,54,0.00,,,0.00,Wunderground v.1.15,2013-02-01 05:22:00,
2013-02-01 00:23:00,27.8,13.3,29.64,NNW,330,2.0,6.0,54,0.00,,,0.00,Wunderground v.1.15,2013-02-01 05:23:00,
2013-02-01 00:24:00,27.8,13.7,29.64,NNW,337,3.0,6.0,55,0.00,,,0.00,Wunderground v.1.15,2013-02-01 05:24:00,
2013-02-01 00:27:00,27.7,13.6,29.64,NNE,29,7.0,7.0,55,0.00,,,0.00,Wunderground v.1.15,2013-02-01 05:27:00,
2013-02-01 00:28:00,27.8,13.7,29.64,North,357,12.0,12.0,55,0.00,,,0.00,Wunderground v.1.15,2013-02-01 05:28:00,
2013-02-01 00:29:00,27.8,13.7,29.64,NNW,337,6.0,12.0,55,0.00,,,0.00,Wunderground v.1.15,2013-02-01 05:29:00,
2013-02-01 00:30:00,27.8,13.7,29.64,NNW,330,7.0,7.0,55,0.00,,,0.00,Wunderground v.1.15,2013-02-01 05:30:00,
2013-02-01 00:35:00,27.9,14.2,29.64,WNW,297,14.0,14.0,56,0.00,,,0.00,Wunderground v.1.15,2013-02-01 05:35:00,
2013-02-01 00:36:00,27.9,14.2,29.64,North,356,8.0,14.0,56,0.00,,,0.00,Wunderground v.1.15,2013-02-01 05:36:00,
2013-02-01 00:37:00,27.9,14.2,29.64,NNW,332,7.0,14.0,56,0.00,,,0.00,Wunderground v.1.15,2013-02-01 05:37:00,
2013-02-01 00:40:00,28.0,14.3,29.64,NNW,330,6.0,8.0,56,0.00,,,0.00,Wunderground v.1.15,2013-02-01 05:40:00,
2013-02-01 00:42:00,27.9,14.6,29.64,WNW,297,10.0,10.0,57,0.00,,,0.00,Wunderground v.1.15,2013-02-01 05:42:00,
2013-02-01 00:43:00,27.9,15.0,29.64,NNW,336,5.0,10.0,58,0.00,,,0.00,Wunderground v.1.15,2013-02-01 05:43:00,
2013-02-01 00:49:00,27.9,15.4,29.64,NNW,337,6.0,18.0,59,0.00,,,0.00,Wunderground v.1.15,2013-02-01 05:49:00,
2013-02-01 00:50:00,28.0,15.5,29.64,NW,325,4.0,9.0,59,0.00,,,0.00,Wunderground v.1.15,2013-02-01 05:50:00,
2013-02-01 00:52:00,27.9,15.4,29.64,NNW,348,10.0,10.0,59,0.00,,,0.00,Wunderground v.1.15,2013-02-01 05:52:00,
2013-02-01 00:54:00,27.9,15.4,29.64,NE,43,11.0,11.0,59,0.00,,,0.00,Wunderground v.1.15,2013-02-01 05:54:00,
2013-02-01 00:56:00,27.9,15.8,29.64,NW,326,8.0,11.0,60,0.00,,,0.00,Wunderground v.1.15,2013-02-01 05:56:00,
2013-02-01 00:58:00,27.8,16.1,29.65,NNW,330,6.0,11.0,61,0.00,,,0.00,Wunderground v.1.15,2013-02-01 05:58:00,
2013-02-01 00:59:00,27.7,16.0,29.65,NW,319,5.0,11.0,61,0.00,,,0.00,Wunderground v.1.15,2013-02-01 05:59:00,
2013-02-01 01:01:00,27.7,16.0,29.65,NNW,329,4.0,8.0,61,0.00,,,0.00,Wunderground v.1.15,2013-02-01 06:01:00,
2013-02-01 01:02:00,27.6,15.9,29.65,NW,320,6.0,8.0,61,0.00,,,0.00,Wunderground v.1.15,2013-02-01 06:02:00,
2013-02-01 01:05:00,27.5,16.2,29.65,NNW,343,5.0,9.0,62,0.00,,,0.00,Wunderground v.1.15,2013-02-01 06:05:00,
2013-02-01 01:07:00,27.5,16.5,29.65,NW,314,11.0,11.0,63,0.00,,,0.00,Wunderground v.1.15,2013-02-01 06:07:00,
2013-02-01 01:08:00,27.5,16.5,29.65,North,354,7.0,11.0,63,0.00,,,0.00,Wunderground v.1.15,2013-02-01 06:08:00,
2013-02-01 01:09:00,27.5,16.5,29.66,NNE,23,5.0,11.0,63,0.00,,,0.00,Wunderground v.1.15,2013-02-01 06:09:00,
2013-02-01 01:11:00,27.4,16.4,29.65,South,170,8.0,8.0,63,0.00,,,0.00,Wunderground v.1.15,2013-02-01 06:11:00,
2013-02-01 01:15:00,27.3,16.7,29.66,North,350,5.0,12.0,64,0.00,,,0.00,Wunderground v.1.15,2013-02-01 06:15:00,
2013-02-01 01:18:00,27.3,16.7,29.66,NW,326,7.0,12.0,64,0.00,,,0.00,Wunderground v.1.15,2013-02-01 06:18:00,
2013-02-01 01:21:00,27.2,16.6,29.66,North,349,10.0,10.0,64,0.00,,,0.00,Wunderground v.1.15,2013-02-01 06:21:00,
2013-02-01 01:25:00,27.0,16.8,29.66,NNE,20,8.0,10.0,65,0.00,,,0.00,Wunderground v.1.15,2013-02-01 06:25:00,
2013-02-01 01:26:00,27.0,17.1,29.66,NNW,347,15.0,15.0,66,0.00,,,0.00,Wunderground v.1.15,2013-02-01 06:26:00,
2013-02-01 01:27:00,26.9,16.7,29.66,NNE,13,8.0,15.0,65,0.00,,,0.00,Wunderground v.1.15,2013-02-01 06:27:00,
2013-02-01 01:29:00,26.9,17.0,29.66,North,349,10.0,15.0,66,0.00,,,0.00,Wunderground v.1.15,2013-02-01 06:29:00,
2013-02-01 01:32:00,26.8,17.0,29.66,North,11,7.0,8.0,66,0.00,,,0.00,Wunderground v.1.15,2013-02-01 06:32:00,
2013-02-01 01:35:00,26.7,16.9,29.66,NNW,345,13.0,13.0,66,0.00,,,0.00,Wunderground v.1.15,2013-02-01 06:35:00,
2013-02-01 01:37:00,26.7,16.9,29.67,NW,307,5.0,13.0,66,0.00,,,0.00,Wunderground v.1.15,2013-02-01 06:37:00,
2013-02-01 01:38:00,26.7,16.9,29.67,NNW,330,14.0,14.0,66,0.00,,,0.00,Wunderground v.1.15,2013-02-01 06:38:00,
2013-02-01 01:39:00,26.7,16.9,29.67,NW,314,7.0,14.0,66,0.00,,,0.00,Wunderground v.1.15,2013-02-01 06:39:00,
2013-02-01 01:41:00,26.7,16.9,29.67,NNW,330,8.0,9.0,66,0.00,,,0.00,Wunderground v.1.15,2013-02-01 06:41:00,
2013-02-01 01:42:00,26.6,16.8,29.67,WNW,303,5.0,9.0,66,0.00,,,0.00,Wunderground v.1.15,2013-02-01 06:42:00,
2013-02-01 01:44:00,26.6,16.4,29.67,NNE,18,5.0,11.0,65,0.00,,,0.00,Wunderground v.1.15,2013-02-01 06:44:00,
2013-02-01 01:48:00,26.5,16.3,29.67,NNW,335,10.0,11.0,65,0.00,,,0.00,Wunderground v.1.15,2013-02-01 06:48:00,
2013-02-01 01:49:00,26.5,16.3,29.67,NNW,340,6.0,11.0,65,0.00,,,0.00,Wunderground v.1.15,2013-02-01 06:49:00,
2013-02-01 01:50:00,26.5,16.7,29.67,NNW,347,5.0,8.0,66,0.00,,,0.00,Wunderground v.1.15,2013-02-01 06:50:00,
2013-02-01 01:53:00,26.3,16.1,29.67,NE,43,18.0,18.0,65,0.00,,,0.00,Wunderground v.1.15,2013-02-01 06:53:00,
2013-02-01 01:54:00,26.3,16.1,29.67,NW,326,9.0,18.0,65,0.00,,,0.00,Wunderground v.1.15,2013-02-01 06:54:00,
2013-02-01 01:55:00,26.3,16.1,29.67,NNW,343,7.0,18.0,65,0.00,,,0.00,Wunderground v.1.15,2013-02-01 06:55:00,
2013-02-01 01:59:00,26.2,16.0,29.68,North,349,10.0,18.0,65,0.00,,,0.00,Wunderground v.1.15,2013-02-01 06:59:00,
2013-02-01 02:01:00,26.2,16.0,29.68,NNW,340,5.0,8.0,65,0.00,,,0.00,Wunderground v.1.15,2013-02-01 07:01:00,
2013-02-01 02:04:00,26.1,15.9,29.68,North,352,8.0,12.0,65,0.00,,,0.00,Wunderground v.1.15,2013-02-01 07:04:00,
2013-02-01 02:06:00,26.1,15.9,29.68,NNW,342,9.0,12.0,65,0.00,,,0.00,Wunderground v.1.15,2013-02-01 07:06:00,
2013-02-01 02:09:00,26.1,15.9,29.68,NNW,337,5.0,14.0,65,0.00,,,0.00,Wunderground v.1.15,2013-02-01 07:09:00,
2013-02-01 02:11:00,26.1,15.9,29.68,NW,308,6.0,12.0,65,0.00,,,0.00,Wunderground v.1.15,2013-02-01 07:11:00,
2013-02-01 02:12:00,26.0,15.8,29.68,NW,325,5.0,12.0,65,0.00,,,0.00,Wunderground v.1.15,2013-02-01 07:12:00,
2013-02-01 02:14:00,26.0,15.5,29.68,North,354,9.0,12.0,64,0.00,,,0.00,Wunderground v.1.15,2013-02-01 07:14:00,
2013-02-01 02:16:00,25.9,15.7,29.68,North,350,14.0,16.0,65,0.00,,,0.00,Wunderground v.1.15,2013-02-01 07:16:00,
2013-02-01 02:17:00,25.9,15.4,29.68,NNW,337,8.0,16.0,64,0.00,,,0.00,Wunderground v.1.15,2013-02-01 07:17:00,
2013-02-01 02:18:00,25.9,15.4,29.68,WNW,296,8.0,16.0,64,0.00,,,0.00,Wunderground v.1.15,2013-02-01 07:18:00,
2013-02-01 02:20:00,26.0,15.5,29.68,NNW,335,1.0,7.0,64,0.00,,,0.00,Wunderground v.1.15,2013-02-01 07:20:00,
2013-02-01 02:21:00,25.9,15.4,29.68,WNW,291,3.0,13.0,64,0.00,,,0.00,Wunderground v.1.15,2013-02-01 07:21:00,
2013-02-01 02:22:00,25.9,15.4,29.68,NNW,347,7.0,13.0,64,0.00,,,0.00,Wunderground v.1.15,2013-02-01 07:22:00,
2013-02-01 02:24:00,25.9,15.0,29.68,NNW,340,4.0,13.0,63,0.00,,,0.00,Wunderground v.1.15,2013-02-01 07:24:00,
2013-02-01 02:25:00,25.9,15.0,29.68,NNW,328,4.0,13.0,63,0.00,,,0.00,Wunderground v.1.15,2013-02-01 07:25:00,
2013-02-01 02:26:00,25.8,14.9,29.68,NNW,332,4.0,13.0,63,0.00,,,0.00,Wunderground v.1.15,2013-02-01 07:26:00,
2013-02-01 02:27:00,25.8,14.9,29.68,North,8,4.0,13.0,63,0.00,,,0.00,Wunderground v.1.15,2013-02-01 07:27:00,
2013-02-01 02:29:00,25.8,15.3,29.68,NNE,18,9.0,13.0,64,0.00,,,0.00,Wunderground v.1.15,2013-02-01 07:29:00,
2013-02-01 02:30:00,25.7,14.8,29.68,NNE,12,4.0,7.0,63,0.00,,,0.00,Wunderground v.1.15,2013-02-01 07:30:00,
2013-02-01 02:31:00,25.7,14.8,29.68,NW,316,4.0,10.0,63,0.00,,,0.00,Wunderground v.1.15,2013-02-01 07:31:00,
2013-02-01 02:32:00,25.7,14.8,29.68,North,350,6.0,10.0,63,0.00,,,0.00,Wunderground v.1.15,2013-02-01 07:32:00,
2013-02-01 02:34:00,25.6,14.7,29.68,NNE,13,4.0,11.0,63,0.00,,,0.00,Wunderground v.1.15,2013-02-01 07:34:00,
2013-02-01 02:35:00,25.6,14.7,29.68,North,352,11.0,14.0,63,0.00,,,0.00,Wunderground v.1.15,2013-02-01 07:35:00,
2013-02-01 02:37:00,25.6,14.4,29.68,NNW,340,9.0,14.0,62,0.00,,,0.00,Wunderground v.1.15,2013-02-01 07:37:00,
2013-02-01 02:39:00,25.6,14.4,29.68,North,1,3.0,14.0,62,0.00,,,0.00,Wunderground v.1.15,2013-02-01 07:39:00,
2013-02-01 02:40:00,25.5,14.3,29.68,NW,315,2.0,7.0,62,0.00,,,0.00,Wunderground v.1.15,2013-02-01 07:40:00,
2013-02-01 02:42:00,25.5,14.3,29.68,North,354,7.0,11.0,62,0.00,,,0.00,Wunderground v.1.15,2013-02-01 07:42:00,
2013-02-01 02:44:00,25.4,14.2,29.68,NNW,342,7.0,13.0,62,0.00,,,0.00,Wunderground v.1.15,2013-02-01 07:44:00,
2013-02-01 02:45:00,25.4,14.2,29.68,NNW,345,5.0,13.0,62,0.00,,,0.00,Wunderground v.1.15,2013-02-01 07:45:00,
2013-02-01 02:47:00,25.4,14.2,29.68,NNW,336,7.0,13.0,62,0.00,,,0.00,Wunderground v.1.15,2013-02-01 07:47:00,
2013-02-01 02:50:00,25.4,13.8,29.68,North,355,10.0,10.0,61,0.00,,,0.00,Wunderground v.1.15,2013-02-01 07:50:00,
2013-02-01 02:52:00,25.5,13.5,29.68,North,352,10.0,14.0,60,0.00,,,0.00,Wunderground v.1.15,2013-02-01 07:52:00,
2013-02-01 02:53:00,25.5,13.5,29.68,NNW,348,11.0,15.0,60,0.00,,,0.00,Wunderground v.1.15,2013-02-01 07:53:00,
2013-02-01 02:55:00,25.5,13.1,29.68,NNE,23,17.0,18.0,59,0.00,,,0.00,Wunderground v.1.15,2013-02-01 07:55:00,
2013-02-01 02:57:00,25.6,13.2,29.68,NW,323,5.0,18.0,59,0.00,,,0.00,Wunderground v.1.15,2013-02-01 07:57:00,
2013-02-01 02:58:00,25.6,13.2,29.69,NNW,344,7.0,18.0,59,0.00,,,0.00,Wunderground v.1.15,2013-02-01 07:58:00,
2013-02-01 03:00:00,25.5,13.1,29.69,North,4,5.0,8.0,59,0.00,,,0.00,Wunderground v.1.15,2013-02-01 08:00:00,
2013-02-01 03:02:00,25.5,13.1,29.69,NW,308,10.0,16.0,59,0.00,,,0.00,Wunderground v.1.15,2013-02-01 08:02:00,
2013-02-01 03:03:00,25.5,13.1,29.69,NW,318,5.0,16.0,59,0.00,,,0.00,Wunderground v.1.15,2013-02-01 08:03:00,
2013-02-01 03:06:00,25.5,12.8,29.69,WNW,300,5.0,16.0,58,0.00,,,0.00,Wunderground v.1.15,2013-02-01 08:06:00,
2013-02-01 03:07:00,25.5,12.8,29.69,NW,310,11.0,16.0,58,0.00,,,0.00,Wunderground v.1.15,2013-02-01 08:07:00,
2013-02-01 03:08:00,25.5,12.8,29.69,NW,311,5.0,16.0,58,0.00,,,0.00,Wunderground v.1.15,2013-02-01 08:08:00,
2013-02-01 03:11:00,25.5,12.8,29.69,NNW,335,4.0,9.0,58,0.00,,,0.00,Wunderground v.1.15,2013-02-01 08:11:00,
2013-02-01 03:12:00,25.4,12.7,29.69,NNW,345,6.0,9.0,58,0.00,,,0.00,Wunderground v.1.15,2013-02-01 08:12:00,
2013-02-01 03:13:00,25.4,12.7,29.69,NNE,33,11.0,13.0,58,0.00,,,0.00,Wunderground v.1.15,2013-02-01 08:13:00,
2013-02-01 03:16:00,25.4,12.3,29.69,NNW,340,11.0,18.0,57,0.00,,,0.00,Wunderground v.1.15,2013-02-01 08:16:00,
2013-02-01 03:17:00,25.4,11.9,29.69,NW,315,6.0,18.0,56,0.00,,,0.00,Wunderground v.1.15,2013-02-01 08:17:00,
2013-02-01 03:18:00,25.4,11.9,29.69,NNW,329,11.0,18.0,56,0.00,,,0.00,Wunderground v.1.15,2013-02-01 08:18:00,
2013-02-01 03:19:00,25.4,11.9,29.69,North,359,8.0,18.0,56,0.00,,,0.00,Wunderground v.1.15,2013-02-01 08:19:00,
2013-02-01 03:21:00,25.4,11.9,29.69,North,5,6.0,11.0,56,0.00,,,0.00,Wunderground v.1.15,2013-02-01 08:21:00,
2013-02-01 03:22:00,25.4,11.9,29.70,NNW,333,3.0,11.0,56,0.00,,,0.00,Wunderground v.1.15,2013-02-01 08:22:00,
2013-02-01 03:23:00,25.4,12.3,29.70,NW,311,5.0,11.0,57,0.00,,,0.00,Wunderground v.1.15,2013-02-01 08:23:00,
2013-02-01 03:24:00,25.3,11.8,29.70,NNW,333,5.0,15.0,56,0.00,,,0.00,Wunderground v.1.15,2013-02-01 08:24:00,
2013-02-01 03:27:00,25.2,11.7,29.70,NW,325,7.0,15.0,56,0.00,,,0.00,Wunderground v.1.15,2013-02-01 08:27:00,
2013-02-01 03:28:00,25.2,11.7,29.70,NNW,335,6.0,15.0,56,0.00,,,0.00,Wunderground v.1.15,2013-02-01 08:28:00,
2013-02-01 03:29:00,25.2,11.3,29.70,NNW,337,6.0,15.0,55,0.00,,,0.00,Wunderground v.1.15,2013-02-01 08:29:00,
2013-02-01 03:32:00,25.2,11.3,29.70,NNE,20,5.0,11.0,55,0.00,,,0.00,Wunderground v.1.15,2013-02-01 08:32:00,
2013-02-01 03:33:00,25.2,11.3,29.70,North,354,10.0,11.0,55,0.00,,,0.00,Wunderground v.1.15,2013-02-01 08:33:00,
2013-02-01 03:34:00,25.1,11.2,29.70,NNW,342,4.0,11.0,55,0.00,,,0.00,Wunderground v.1.15,2013-02-01 08:34:00,
2013-02-01 03:38:00,25.0,11.1,29.70,NNW,342,6.0,11.0,55,0.00,,,0.00,Wunderground v.1.15,2013-02-01 08:38:00,
2013-02-01 03:39:00,25.0,11.5,29.70,NNW,348,9.0,11.0,56,0.00,,,0.00,Wunderground v.1.15,2013-02-01 08:39:00,
2013-02-01 03:43:00,25.0,11.1,29.70,NNE,13,6.0,12.0,55,0.00,,,0.00,Wunderground v.1.15,2013-02-01 08:43:00,
2013-02-01 03:44:00,25.0,11.1,29.71,North,354,5.0,12.0,55,0.00,,,0.00,Wunderground v.1.15,2013-02-01 08:44:00,
2013-02-01 03:48:00,24.9,10.6,29.71,North,352,6.0,12.0,54,0.00,,,0.00,Wunderground v.1.15,2013-02-01 08:48:00,
2013-02-01 03:49:00,24.9,10.6,29.71,North,350,4.0,12.0,54,0.00,,,0.00,Wunderground v.1.15,2013-02-01 08:49:00,
2013-02-01 03:53:00,24.9,10.6,29.71,North,360,2.0,9.0,54,0.00,,,0.00,Wunderground v.1.15,2013-02-01 08:53:00,
2013-02-01 03:55:00,24.9,10.6,29.71,NNW,337,7.0,9.0,54,0.00,,,0.00,Wunderground v.1.15,2013-02-01 08:55:00,
2013-02-01 03:58:00,24.8,10.5,29.71,North,349,7.0,10.0,54,0.00,,,0.00,Wunderground v.1.15,2013-02-01 08:58:00,
2013-02-01 03:59:00,24.8,10.5,29.71,NW,319,5.0,10.0,54,0.00,,,0.00,Wunderground v.1.15,2013-02-01 08:59:00,
2013-02-01 04:00:00,24.8,10.5,29.70,North,356,8.0,8.0,54,0.00,,,0.00,Wunderground v.1.15,2013-02-01 09:00:00,
2013-02-01 04:03:00,24.8,10.5,29.71,NNW,340,15.0,17.0,54,0.00,,,0.00,Wunderground v.1.15,2013-02-01 09:03:00,
2013-02-01 04:04:00,24.8,10.5,29.71,NNW,328,12.0,17.0,54,0.00,,,0.00,Wunderground v.1.15,2013-02-01 09:04:00,
2013-02-01 04:05:00,24.8,10.1,29.71,NW,307,7.0,17.0,53,0.00,,,0.00,Wunderground v.1.15,2013-02-01 09:05:00,
2013-02-01 04:09:00,24.8,10.5,29.71,North,11,9.0,17.0,54,0.00,,,0.00,Wunderground v.1.15,2013-02-01 09:09:00,
2013-02-01 04:10:00,24.8,10.5,29.71,WNW,290,5.0,7.0,54,0.00,,,0.00,Wunderground v.1.15,2013-02-01 09:10:00,
2013-02-01 04:14:00,24.7,10.4,29.71,NW,312,5.0,11.0,54,0.00,,,0.00,Wunderground v.1.15,2013-02-01 09:14:00,
2013-02-01 04:16:00,24.6,10.3,29.71,West,279,7.0,11.0,54,0.00,,,0.00,Wunderground v.1.15,2013-02-01 09:16:00,
2013-02-01 04:19:00,24.7,10.0,29.71,NNW,338,8.0,15.0,53,0.00,,,0.00,Wunderground v.1.15,2013-02-01 09:19:00,
2013-02-01 04:21:00,24.7,10.4,29.71,NW,321,5.0,11.0,54,0.00,,,0.00,Wunderground v.1.15,2013-02-01 09:21:00,
2013-02-01 04:24:00,24.7,10.4,29.72,NW,316,4.0,17.0,54,0.00,,,0.00,Wunderground v.1.15,2013-02-01 09:24:00,
2013-02-01 04:26:00,24.7,10.0,29.71,North,8,6.0,17.0,53,0.00,,,0.00,Wunderground v.1.15,2013-02-01 09:26:00,
2013-02-01 04:29:00,24.6,9.9,29.71,WNW,302,4.0,17.0,53,0.00,,,0.00,Wunderground v.1.15,2013-02-01 09:29:00,
2013-02-01 04:31:00,24.6,9.9,29.71,WNW,300,8.0,13.0,53,0.00,,,0.00,Wunderground v.1.15,2013-02-01 09:31:00,
2013-02-01 04:34:00,24.5,9.8,29.72,NW,320,5.0,14.0,53,0.00,,,0.00,Wunderground v.1.15,2013-02-01 09:34:00,
2013-02-01 04:35:00,24.6,9.9,29.72,NW,324,9.0,14.0,53,0.00,,,0.00,Wunderground v.1.15,2013-02-01 09:35:00,
2013-02-01 04:36:00,24.6,9.9,29.72,NNE,12,13.0,14.0,53,0.00,,,0.00,Wunderground v.1.15,2013-02-01 09:36:00,
2013-02-01 04:39:00,24.6,9.9,29.72,NNW,331,7.0,15.0,53,0.00,,,0.00,Wunderground v.1.15,2013-02-01 09:39:00,
2013-02-01 04:40:00,24.6,9.9,29.72,North,11,7.0,15.0,53,0.00,,,0.00,Wunderground v.1.15,2013-02-01 09:40:00,
2013-02-01 04:41:00,24.5,9.8,29.72,North,353,4.0,10.0,53,0.00,,,0.00,Wunderground v.1.15,2013-02-01 09:41:00,
2013-02-01 04:45:00,24.5,9.8,29.72,NNW,347,8.0,10.0,53,0.00,,,0.00,Wunderground v.1.15,2013-02-01 09:45:00,
2013-02-01 04:47:00,24.4,10.1,29.71,NW,314,5.0,11.0,54,0.00,,,0.00,Wunderground v.1.15,2013-02-01 09:47:00,
2013-02-01 04:50:00,24.4,10.1,29.72,NW,308,5.0,6.0,54,0.00,,,0.00,Wunderground v.1.15,2013-02-01 09:50:00,
2013-02-01 04:52:00,24.4,9.7,29.72,NNW,345,4.0,10.0,53,0.00,,,0.00,Wunderground v.1.15,2013-02-01 09:52:00,
2013-02-01 04:55:00,24.4,10.1,29.72,NW,306,4.0,10.0,54,0.00,,,0.00,Wunderground v.1.15,2013-02-01 09:55:00,
2013-02-01 04:57:00,24.3,10.0,29.72,NW,312,2.0,10.0,54,0.00,,,0.00,Wunderground v.1.15,2013-02-01 09:57:00,
2013-02-01 05:00:00,24.2,9.9,29.72,NNW,343,7.0,7.0,54,0.00,,,0.00,Wunderground v.1.15,2013-02-01 10:00:00,
2013-02-01 05:02:00,24.2,9.9,29.72,North,8,5.0,9.0,54,0.00,,,0.00,Wunderground v.1.15,2013-02-01 10:02:00,
2013-02-01 05:05:00,24.1,9.8,29.72,NNW,340,5.0,9.0,54,0.00,,,0.00,Wunderground v.1.15,2013-02-01 10:05:00,
2013-02-01 05:06:00,24.2,9.9,29.72,North,354,10.0,13.0,54,0.00,,,0.00,Wunderground v.1.15,2013-02-01 10:06:00,
2013-02-01 05:07:00,24.2,9.9,29.72,North,354,7.0,13.0,54,0.00,,,0.00,Wunderground v.1.15,2013-02-01 10:07:00,
2013-02-01 05:10:00,24.2,9.9,29.71,NNW,340,5.0,9.0,54,0.00,,,0.00,Wunderground v.1.15,2013-02-01 10:10:00,
2013-02-01 05:11:00,24.2,9.9,29.71,North,352,5.0,9.0,54,0.00,,,0.00,Wunderground v.1.15,2013-02-01 10:11:00,
2013-02-01 05:12:00,24.2,9.9,29.71,North,1,6.0,9.0,54,0.00,,,0.00,Wunderground v.1.15,2013-02-01 10:12:00,
2013-02-01 05:15:00,24.2,9.9,29.71,North,349,2.0,9.0,54,0.00,,,0.00,Wunderground v.1.15,2013-02-01 10:15:00,
2013-02-01 05:16:00,24.2,9.9,29.71,North,356,1.0,9.0,54,0.00,,,0.00,Wunderground v.1.15,2013-02-01 10:16:00,
2013-02-01 05:17:00,24.1,10.2,29.72,NNE,21,6.0,9.0,55,0.00,,,0.00,Wunderground v.1.15,2013-02-01 10:17:00,
2013-02-01 05:20:00,24.2,9.9,29.72,NNW,342,6.0,12.0,54,0.00,,,0.00,Wunderground v.1.15,2013-02-01 10:20:00,
2013-02-01 05:21:00,24.2,9.9,29.71,NNW,339,8.0,12.0,54,0.00,,,0.00,Wunderground v.1.15,2013-02-01 10:21:00,
2013-02-01 05:23:00,24.2,9.9,29.71,WNW,302,9.0,12.0,54,0.00,,,0.00,Wunderground v.1.15,2013-02-01 10:23:00,
2013-02-01 05:25:00,24.2,9.9,29.72,North,352,4.0,12.0,54,0.00,,,0.00,Wunderground v.1.15,2013-02-01 10:25:00,
2013-02-01 05:26:00,24.2,9.9,29.72,North,349,5.0,12.0,54,0.00,,,0.00,Wunderground v.1.15,2013-02-01 10:26:00,
2013-02-01 05:28:00,24.2,9.9,29.72,NW,311,6.0,12.0,54,0.00,,,0.00,Wunderground v.1.15,2013-02-01 10:28:00,
2013-02-01 05:30:00,24.2,9.9,29.72,NW,316,2.0,6.0,54,0.00,,,0.00,Wunderground v.1.15,2013-02-01 10:30:00,
2013-02-01 05:31:00,24.2,9.9,29.72,NNW,335,6.0,6.0,54,0.00,,,0.00,Wunderground v.1.15,2013-02-01 10:31:00,
2013-02-01 05:33:00,24.1,9.8,29.72,North,1,7.0,12.0,54,0.00,,,0.00,Wunderground v.1.15,2013-02-01 10:33:00,
2013-02-01 05:36:00,24.1,10.2,29.72,NW,309,3.0,12.0,55,0.00,,,0.00,Wunderground v.1.15,2013-02-01 10:36:00,
2013-02-01 05:37:00,24.1,9.8,29.72,North,354,4.0,12.0,54,0.00,,,0.00,Wunderground v.1.15,2013-02-01 10:37:00,
2013-02-01 05:38:00,24.0,10.2,29.72,NNW,339,4.0,12.0,55,0.00,,,0.00,Wunderground v.1.15,2013-02-01 10:38:00,
2013-02-01 05:41:00,24.0,10.2,29.72,West,277,1.0,7.0,55,0.00,,,0.00,Wunderground v.1.15,2013-02-01 10:41:00,
2013-02-01 05:42:00,23.9,10.1,29.72,NNW,343,4.0,7.0,55,0.00,,,0.00,Wunderground v.1.15,2013-02-01 10:42:00,
2013-02-01 05:43:00,23.9,10.1,29.72,NW,316,7.0,7.0,55,0.00,,,0.00,Wunderground v.1.15,2013-02-01 10:43:00,
2013-02-01 05:46:00,23.8,10.0,29.72,NW,324,5.0,9.0,55,0.00,,,0.00,Wunderground v.1.15,2013-02-01 10:46:00,
2013-02-01 05:47:00,23.8,10.0,29.72,North,3,7.0,9.0,55,0.00,,,0.00,Wunderground v.1.15,2013-02-01 10:47:00,
2013-02-01 05:48:00,23.8,10.0,29.73,NNW,347,4.0,9.0,55,0.00,,,0.00,Wunderground v.1.15,2013-02-01 10:48:00,
2013-02-01 05:51:00,23.8,10.0,29.72,NNW,339,4.0,6.0,55,0.00,,,0.00,Wunderground v.1.15,2013-02-01 10:51:00,
2013-02-01 05:52:00,23.7,9.9,29.73,North,349,2.0,6.0,55,0.00,,,0.00,Wunderground v.1.15,2013-02-01 10:52:00,
2013-02-01 05:54:00,23.7,10.3,29.73,North,354,3.0,6.0,56,0.00,,,0.00,Wunderground v.1.15,2013-02-01 10:54:00,
2013-02-01 05:56:00,23.6,10.2,29.73,NNW,344,3.0,6.0,56,0.00,,,0.00,Wunderground v.1.15,2013-02-01 10:56:00,
2013-02-01 05:58:00,23.6,10.2,29.73,NNW,330,5.0,9.0,56,0.00,,,0.00,Wunderground v.1.15,2013-02-01 10:58:00,
2013-02-01 05:59:00,23.6,10.2,29.73,NNW,340,2.0,9.0,56,0.00,,,0.00,Wunderground v.1.15,2013-02-01 10:59:00,
2013-02-01 06:01:00,23.6,10.2,29.73,NW,312,2.0,9.0,56,0.00,,,0.00,Wunderground v.1.15,2013-02-01 11:01:00,
2013-02-01 06:02:00,23.6,10.6,29.73,NW,311,5.0,9.0,57,0.00,,,0.00,Wunderground v.1.15,2013-02-01 11:02:00,
2013-02-01 06:03:00,23.6,10.2,29.73,NNW,335,4.0,12.0,56,0.00,,,0.00,Wunderground v.1.15,2013-02-01 11:03:00,
2013-02-01 06:04:00,23.6,10.2,29.73,North,349,7.0,12.0,56,0.00,,,0.00,Wunderground v.1.15,2013-02-01 11:04:00,
2013-02-01 06:06:00,23.6,10.2,29.73,North,1,3.0,12.0,56,0.00,,,0.00,Wunderground v.1.15,2013-02-01 11:06:00,
2013-02-01 06:07:00,23.6,10.6,29.73,NNW,330,8.0,12.0,57,0.00,,,0.00,Wunderground v.1.15,2013-02-01 11:07:00,
2013-02-01 06:08:00,23.6,10.6,29.74,NW,323,5.0,12.0,57,0.00,,,0.00,Wunderground v.1.15,2013-02-01 11:08:00,
2013-02-01 06:09:00,23.6,10.6,29.73,NNW,340,4.0,12.0,57,0.00,,,0.00,Wunderground v.1.15,2013-02-01 11:09:00,
2013-02-01 06:11:00,23.6,10.6,29.74,NNW,331,4.0,9.0,57,0.00,,,0.00,Wunderground v.1.15,2013-02-01 11:11:00,
2013-02-01 06:12:00,23.6,10.6,29.74,NW,316,4.0,9.0,57,0.00,,,0.00,Wunderground v.1.15,2013-02-01 11:12:00,
2013-02-01 06:13:00,23.6,10.6,29.73,NNW,343,2.0,9.0,57,0.00,,,0.00,Wunderground v.1.15,2013-02-01 11:13:00,
2013-02-01 06:14:00,23.6,10.6,29.74,NW,311,3.0,9.0,57,0.00,,,0.00,Wunderground v.1.15,2013-02-01 11:14:00,
2013-02-01 06:16:00,23.5,10.5,29.74,North,355,4.0,9.0,57,0.00,,,0.00,Wunderground v.1.15,2013-02-01 11:16:00,
2013-02-01 06:17:00,23.6,10.6,29.74,NNE,16,9.0,9.0,57,0.00,,,0.00,Wunderground v.1.15,2013-02-01 11:17:00,
2013-02-01 06:18:00,23.6,10.6,29.74,NNW,335,7.0,9.0,57,0.00,,,0.00,Wunderground v.1.15,2013-02-01 11:18:00,
2013-02-01 06:20:00,23.6,10.6,29.74,North,8,5.0,5.0,57,0.00,,,0.00,Wunderground v.1.15,2013-02-01 11:20:00,
2013-02-01 06:21:00,23.7,10.7,29.74,NNE,16,6.0,8.0,57,0.00,,,0.00,Wunderground v.1.15,2013-02-01 11:21:00,
2013-02-01 06:22:00,23.7,10.7,29.74,WNW,302,3.0,8.0,57,0.00,,,0.00,Wunderground v.1.15,2013-02-01 11:22:00,
2013-02-01 06:23:00,23.7,10.7,29.74,NNW,335,4.0,8.0,57,0.00,,,0.00,Wunderground v.1.15,2013-02-01 11:23:00,
2013-02-01 06:25:00,23.7,10.7,29.74,NNW,345,8.0,8.0,57,0.00,,,0.00,Wunderground v.1.15,2013-02-01 11:25:00,
2013-02-01 06:26:00,23.6,10.6,29.75,NW,314,3.0,10.0,57,0.00,,,0.00,Wunderground v.1.15,2013-02-01 11:26:00,
2013-02-01 06:27:00,23.6,11.0,29.75,North,358,7.0,10.0,58,0.00,,,0.00,Wunderground v.1.15,2013-02-01 11:27:00,
2013-02-01 06:29:00,23.6,11.0,29.75,NW,326,3.0,10.0,58,0.00,,,0.00,Wunderground v.1.15,2013-02-01 11:29:00,
2013-02-01 06:30:00,23.5,10.9,29.75,NNE,13,5.0,6.0,58,0.00,,,0.00,Wunderground v.1.15,2013-02-01 11:30:00,
2013-02-01 06:32:00,23.5,10.9,29.75,NNW,340,4.0,8.0,58,0.00,,,0.00,Wunderground v.1.15,2013-02-01 11:32:00,
2013-02-01 06:33:00,23.5,10.9,29.75,NNE,20,5.0,8.0,58,0.00,,,0.00,Wunderground v.1.15,2013-02-01 11:33:00,
2013-02-01 06:34:00,23.5,10.9,29.75,NW,326,4.0,8.0,58,0.00,,,0.00,Wunderground v.1.15,2013-02-01 11:34:00,
2013-02-01 06:35:00,23.5,11.3,29.75,North,1,11.0,12.0,59,0.00,,,0.00,Wunderground v.1.15,2013-02-01 11:35:00,
2013-02-01 06:37:00,23.5,11.3,29.75,NW,312,6.0,12.0,59,0.00,,,0.00,Wunderground v.1.15,2013-02-01 11:37:00,
2013-02-01 06:38:00,23.5,11.3,29.76,North,8,4.0,12.0,59,0.00,,,0.00,Wunderground v.1.15,2013-02-01 11:38:00,
2013-02-01 06:41:00,23.5,11.3,29.76,WNW,302,2.0,15.0,59,0.00,,,0.00,Wunderground v.1.15,2013-02-01 11:41:00,
2013-02-01 06:42:00,23.5,11.3,29.76,NNW,340,4.0,15.0,59,0.00,,,0.00,Wunderground v.1.15,2013-02-01 11:42:00,
2013-02-01 06:43:00,23.4,11.2,29.76,NNW,343,2.0,15.0,59,0.00,,,0.00,Wunderground v.1.15,2013-02-01 11:43:00,
2013-02-01 06:46:00,23.4,11.5,29.76,WNW,295,2.0,15.0,60,0.00,,,0.00,Wunderground v.1.15,2013-02-01 11:46:00,
2013-02-01 06:47:00,23.4,11.5,29.76,NNW,342,4.0,15.0,60,0.00,,,0.00,Wunderground v.1.15,2013-02-01 11:47:00,
2013-02-01 06:48:00,23.3,11.4,29.76,NNW,337,4.0,15.0,60,0.00,,,0.00,Wunderground v.1.15,2013-02-01 11:48:00,
2013-02-01 06:49:00,23.3,11.4,29.76,North,355,4.0,15.0,60,0.00,,,0.00,Wunderground v.1.15,2013-02-01 11:49:00,
2013-02-01 06:51:00,23.3,11.4,29.76,NNW,343,2.0,6.0,60,0.00,,,0.00,Wunderground v.1.15,2013-02-01 11:51:00,
2013-02-01 06:53:00,23.2,11.4,29.76,NNW,343,5.0,10.0,60,0.00,,,0.00,Wunderground v.1.15,2013-02-01 11:53:00,
2013-02-01 06:54:00,23.2,11.7,29.76,NNE,13,2.0,10.0,61,0.00,,,0.00,Wunderground v.1.15,2013-02-01 11:54:00,
2013-02-01 06:56:00,23.2,11.7,29.77,NNW,344,5.0,12.0,61,0.00,,,0.00,Wunderground v.1.15,2013-02-01 11:56:00,
2013-02-01 06:58:00,23.2,11.7,29.77,NNE,31,6.0,12.0,61,0.00,,,0.00,Wunderground v.1.15,2013-02-01 11:58:00,
2013-02-01 06:59:00,23.2,11.7,29.77,NNW,336,5.0,12.0,61,0.00,,,0.00,Wunderground v.1.15,2013-02-01 11:59:00,
2013-02-01 07:01:00,23.2,11.7,29.77,NW,309,6.0,8.0,61,0.00,,,0.00,Wunderground v.1.15,2013-02-01 12:01:00,
2013-02-01 07:03:00,23.3,11.8,29.77,North,352,5.0,8.0,61,0.00,,,0.00,Wunderground v.1.15,2013-02-01 12:03:00,
2013-02-01 07:04:00,23.3,11.8,29.77,NW,308,8.0,10.0,61,0.00,,,0.00,Wunderground v.1.15,2013-02-01 12:04:00,
2013-02-01 07:06:00,23.4,11.9,29.77,NNE,33,7.0,10.0,61,0.00,,,0.00,Wunderground v.1.15,2013-02-01 12:06:00,
2013-02-01 07:08:00,23.5,12.0,29.78,NW,316,3.0,10.0,61,0.00,,,0.00,Wunderground v.1.15,2013-02-01 12:08:00,
2013-02-01 07:09:00,23.5,12.4,29.78,NNW,345,2.0,10.0,62,0.00,,,0.00,Wunderground v.1.15,2013-02-01 12:09:00,
2013-02-01 07:12:00,23.5,12.0,29.78,North,357,5.0,12.0,61,0.00,,,0.00,Wunderground v.1.15,2013-02-01 12:12:00,
2013-02-01 07:13:00,23.5,12.0,29.78,NW,323,3.0,12.0,61,0.00,,,0.00,Wunderground v.1.15,2013-02-01 12:13:00,
2013-02-01 07:14:00,23.6,12.1,29.78,NNW,348,4.0,12.0,61,0.00,,,0.00,Wunderground v.1.15,2013-02-01 12:14:00,
2013-02-01 07:15:00,23.6,12.1,29.78,North,351,7.0,12.0,61,0.00,,,0.00,Wunderground v.1.15,2013-02-01 12:15:00,
2013-02-01 07:17:00,23.6,12.5,29.78,NW,324,3.0,12.0,62,0.00,,,0.00,Wunderground v.1.15,2013-02-01 12:17:00,
2013-02-01 07:18:00,23.6,12.1,29.78,North,354,4.0,12.0,61,0.00,,,0.00,Wunderground v.1.15,2013-02-01 12:18:00,
2013-02-01 07:19:00,23.7,12.2,29.78,WNW,297,4.0,12.0,61,0.00,,,0.00,Wunderground v.1.15,2013-02-01 12:19:00,
2013-02-01 07:20:00,23.7,12.6,29.78,NNW,346,7.0,7.0,62,0.00,,,0.00,Wunderground v.1.15,2013-02-01 12:20:00,
2013-02-01 07:22:00,23.8,12.3,29.78,North,352,7.0,7.0,61,0.00,,,0.00,Wunderground v.1.15,2013-02-01 12:22:00,
2013-02-01 07:23:00,23.9,12.8,29.78,North,349,7.0,9.0,62,0.00,,,0.00,Wunderground v.1.15,2013-02-01 12:23:00,
2013-02-01 07:24:00,23.9,12.8,29.78,North,353,4.0,10.0,62,0.00,,,0.00,Wunderground v.1.15,2013-02-01 12:24:00,
2013-02-01 07:25:00,23.9,12.4,29.78,NW,319,6.0,10.0,61,0.00,,,0.00,Wunderground v.1.15,2013-02-01 12:25:00,
2013-02-01 07:27:00,24.0,12.9,29.78,North,352,2.0,11.0,62,0.00,,,0.00,Wunderground v.1.15,2013-02-01 12:27:00,
2013-02-01 07:29:00,24.0,12.9,29.78,NW,319,4.0,11.0,62,0.00,,,0.00,Wunderground v.1.15,2013-02-01 12:29:00,
2013-02-01 07:31:00,24.2,13.0,29.78,NW,304,3.0,8.0,62,0.00,,,0.00,Wunderground v.1.15,2013-02-01 12:31:00,
2013-02-01 07:32:00,24.2,13.0,29.78,NNW,343,2.0,8.0,62,0.00,,,0.00,Wunderground v.1.15,2013-02-01 12:32:00,
2013-02-01 07:34:00,24.2,13.0,29.78,NNW,330,4.0,11.0,62,0.00,,,0.00,Wunderground v.1.15,2013-02-01 12:34:00,
2013-02-01 07:35:00,24.2,13.0,29.78,NNW,341,7.0,11.0,62,0.00,,,0.00,Wunderground v.1.15,2013-02-01 12:35:00,
2013-02-01 07:36:00,24.3,13.1,29.79,North,360,7.0,11.0,62,0.00,,,0.00,Wunderground v.1.15,2013-02-01 12:36:00,
2013-02-01 07:37:00,24.3,13.1,29.79,North,356,6.0,11.0,62,0.00,,,0.00,Wunderground v.1.15,2013-02-01 12:37:00,
2013-02-01 07:39:00,24.4,12.9,29.79,NNW,331,6.0,12.0,61,0.00,,,0.00,Wunderground v.1.15,2013-02-01 12:39:00,
2013-02-01 07:40:00,24.4,12.9,29.79,NW,325,5.0,12.0,61,0.00,,,0.00,Wunderground v.1.15,2013-02-01 12:40:00,
2013-02-01 07:41:00,24.4,12.9,29.79,NNW,344,7.0,12.0,61,0.00,,,0.00,Wunderground v.1.15,2013-02-01 12:41:00,
2013-02-01 07:42:00,24.4,12.9,29.79,NNW,332,8.0,12.0,61,0.00,,,0.00,Wunderground v.1.15,2013-02-01 12:42:00,
2013-02-01 07:44:00,24.5,13.0,29.79,NW,307,4.0,12.0,61,0.00,,,0.00,Wunderground v.1.15,2013-02-01 12:44:00,
2013-02-01 07:45:00,24.5,13.0,29.79,North,352,4.0,12.0,61,0.00,,,0.00,Wunderground v.1.15,2013-02-01 12:45:00,
2013-02-01 07:47:00,24.6,13.4,29.80,NNW,329,3.0,12.0,62,0.00,,,0.00,Wunderground v.1.15,2013-02-01 12:47:00,
2013-02-01 07:50:00,24.6,13.1,29.80,NNW,332,5.0,12.0,61,0.00,,,0.00,Wunderground v.1.15,2013-02-01 12:50:00,
2013-02-01 07:52:00,24.6,13.1,29.80,NNW,337,5.0,8.0,61,0.00,,,0.00,Wunderground v.1.15,2013-02-01 12:52:00,
2013-02-01 07:55:00,24.6,13.1,29.80,WNW,302,5.0,14.0,61,0.00,,,0.00,Wunderground v.1.15,2013-02-01 12:55:00,
2013-02-01 07:57:00,24.7,13.1,29.81,NNW,338,3.0,14.0,61,0.00,,,0.00,Wunderground v.1.15,2013-02-01 12:57:00,
2013-02-01 07:58:00,24.7,13.1,29.81,NNW,345,2.0,14.0,61,0.00,,,0.00,Wunderground v.1.15,2013-02-01 12:58:00,
2013-02-01 08:00:00,24.7,13.1,29.81,North,9,2.0,6.0,61,0.00,,,0.00,Wunderground v.1.15,2013-02-01 13:00:00,
2013-02-01 08:02:00,24.7,13.1,29.81,NNW,345,5.0,10.0,61,0.00,,,0.00,Wunderground v.1.15,2013-02-01 13:02:00,
2013-02-01 08:03:00,24.7,13.1,29.81,NNE,15,9.0,10.0,61,0.00,,,0.00,Wunderground v.1.15,2013-02-01 13:03:00,
2013-02-01 08:05:00,24.8,12.9,29.81,NNW,338,5.0,12.0,60,0.00,,,0.00,Wunderground v.1.15,2013-02-01 13:05:00,
2013-02-01 08:07:00,24.8,12.9,29.81,NNW,338,8.0,14.0,60,0.00,,,0.00,Wunderground v.1.15,2013-02-01 13:07:00,
2013-02-01 08:08:00,24.8,12.9,29.81,North,3,5.0,14.0,60,0.00,,,0.00,Wunderground v.1.15,2013-02-01 13:08:00,
2013-02-01 08:10:00,24.9,13.0,29.82,NW,318,8.0,8.0,60,0.00,,,0.00,Wunderground v.1.15,2013-02-01 13:10:00,
2013-02-01 08:12:00,24.9,13.0,29.81,NNE,18,6.0,15.0,60,0.00,,,0.00,Wunderground v.1.15,2013-02-01 13:12:00,
2013-02-01 08:13:00,25.0,13.1,29.82,North,6,9.0,15.0,60,0.00,,,0.00,Wunderground v.1.15,2013-02-01 13:13:00,
2013-02-01 08:15:00,25.0,13.1,29.82,North,359,11.0,15.0,60,0.00,,,0.00,Wunderground v.1.15,2013-02-01 13:15:00,
2013-02-01 08:16:00,25.0,13.1,29.82,NNW,330,7.0,15.0,60,0.00,,,0.00,Wunderground v.1.15,2013-02-01 13:16:00,
2013-02-01 08:17:00,25.0,13.1,29.82,North,352,6.0,15.0,60,0.00,,,0.00,Wunderground v.1.15,2013-02-01 13:17:00,
2013-02-01 08:18:00,25.0,13.1,29.82,NNW,342,6.0,15.0,60,0.00,,,0.00,Wunderground v.1.15,2013-02-01 13:18:00,
2013-02-01 08:22:00,25.1,13.2,29.82,NW,316,6.0,8.0,60,0.00,,,0.00,Wunderground v.1.15,2013-02-01 13:22:00,
2013-02-01 08:23:00,25.1,13.2,29.82,NNW,345,3.0,12.0,60,0.00,,,0.00,Wunderground v.1.15,2013-02-01 13:23:00,
2013-02-01 08:27:00,25.3,13.3,29.82,NNW,340,8.0,12.0,60,0.00,,,0.00,Wunderground v.1.15,2013-02-01 13:27:00,
2013-02-01 08:28:00,25.3,13.3,29.82,WNW,288,9.0,12.0,60,0.00,,,0.00,Wunderground v.1.15,2013-02-01 13:28:00,
2013-02-01 08:32:00,25.4,13.1,29.82,NNW,343,6.0,17.0,59,0.00,,,0.00,Wunderground v.1.15,2013-02-01 13:32:00,
2013-02-01 08:33:00,25.4,13.4,29.82,NNW,333,4.0,17.0,60,0.00,,,0.00,Wunderground v.1.15,2013-02-01 13:33:00,
2013-02-01 08:37:00,25.5,12.8,29.82,NW,311,6.0,24.0,58,0.00,,,0.00,Wunderground v.1.15,2013-02-01 13:37:00,
2013-02-01 08:38:00,25.6,13.2,29.82,North,349,4.0,24.0,59,0.00,,,0.00,Wunderground v.1.15,2013-02-01 13:38:00,
2013-02-01 08:42:00,25.7,12.9,29.83,NW,322,10.0,15.0,58,0.00,,,0.00,Wunderground v.1.15,2013-02-01 13:42:00,
2013-02-01 08:43:00,25.7,12.9,29.83,NNW,333,10.0,15.0,58,0.00,,,0.00,Wunderground v.1.15,2013-02-01 13:43:00,
2013-02-01 08:44:00,25.8,13.0,29.82,NNW,332,9.0,17.0,58,0.00,,,0.00,Wunderground v.1.15,2013-02-01 13:44:00,
2013-02-01 08:47:00,25.8,13.0,29.83,WSW,252,11.0,19.0,58,0.00,,,0.00,Wunderground v.1.15,2013-02-01 13:47:00,
2013-02-01 08:48:00,25.8,13.0,29.83,North,357,9.0,19.0,58,0.00,,,0.00,Wunderground v.1.15,2013-02-01 13:48:00,
2013-02-01 08:49:00,25.9,13.1,29.83,NNW,342,10.0,19.0,58,0.00,,,0.00,Wunderground v.1.15,2013-02-01 13:49:00,
2013-02-01 08:52:00,26.0,13.2,29.83,NW,311,3.0,11.0,58,0.00,,,0.00,Wunderground v.1.15,2013-02-01 13:52:00,
2013-02-01 08:53:00,26.0,13.2,29.83,NNW,328,3.0,11.0,58,0.00,,,0.00,Wunderground v.1.15,2013-02-01 13:53:00,
2013-02-01 08:54:00,26.1,13.7,29.83,NNW,342,7.0,11.0,59,0.00,,,0.00,Wunderground v.1.15,2013-02-01 13:54:00,
2013-02-01 08:57:00,26.3,13.1,29.82,North,352,6.0,11.0,57,0.00,,,0.00,Wunderground v.1.15,2013-02-01 13:57:00,
2013-02-01 08:58:00,26.3,13.1,29.82,NW,320,7.0,11.0,57,0.00,,,0.00,Wunderground v.1.15,2013-02-01 13:58:00,
2013-02-01 09:00:00,26.4,13.2,29.83,NNW,338,6.0,6.0,57,0.00,,,0.00,Wunderground v.1.15,2013-02-01 14:00:00,
2013-02-01 09:02:00,26.6,13.4,29.83,NNW,343,6.0,12.0,57,0.00,,,0.00,Wunderground v.1.15,2013-02-01 14:02:00,
2013-02-01 09:03:00,26.6,13.4,29.82,NNW,337,4.0,12.0,57,0.00,,,0.00,Wunderground v.1.15,2013-02-01 14:03:00,
2013-02-01 09:04:00,26.7,13.5,29.83,North,352,7.0,12.0,57,0.00,,,0.00,Wunderground v.1.15,2013-02-01 14:04:00,
2013-02-01 09:05:00,26.8,13.6,29.82,North,349,5.0,12.0,57,0.00,,,0.00,Wunderground v.1.15,2013-02-01 14:05:00,
2013-02-01 09:07:00,26.9,13.3,29.83,North,6,8.0,12.0,56,0.00,,,0.00,Wunderground v.1.15,2013-02-01 14:07:00,
2013-02-01 09:08:00,27.0,13.4,29.83,NW,321,5.0,12.0,56,0.00,,,0.00,Wunderground v.1.15,2013-02-01 14:08:00,
2013-02-01 09:09:00,27.1,13.5,29.82,NW,316,7.0,12.0,56,0.00,,,0.00,Wunderground v.1.15,2013-02-01 14:09:00,
2013-02-01 09:10:00,27.2,13.6,29.82,NNE,32,6.0,7.0,56,0.00,,,0.00,Wunderground v.1.15,2013-02-01 14:10:00,
2013-02-01 09:12:00,27.2,13.1,29.82,NW,307,6.0,11.0,55,0.00,,,0.00,Wunderground v.1.15,2013-02-01 14:12:00,
2013-02-01 09:13:00,27.3,13.2,29.82,North,1,8.0,11.0,55,0.00,,,0.00,Wunderground v.1.15,2013-02-01 14:13:00,
2013-02-01 09:14:00,27.3,13.2,29.82,NW,317,9.0,12.0,55,0.00,,,0.00,Wunderground v.1.15,2013-02-01 14:14:00,
2013-02-01 09:16:00,27.3,13.2,29.82,NW,322,4.0,12.0,55,0.00,,,0.00,Wunderground v.1.15,2013-02-01 14:16:00,
2013-02-01 09:18:00,27.3,13.7,29.82,NNW,345,6.0,12.0,56,0.00,,,0.00,Wunderground v.1.15,2013-02-01 14:18:00,
2013-02-01 09:19:00,27.4,13.7,29.82,North,354,7.0,13.0,56,0.00,,,0.00,Wunderground v.1.15,2013-02-01 14:19:00,
2013-02-01 09:21:00,27.4,13.3,29.82,NNE,23,10.0,12.0,55,0.00,,,0.00,Wunderground v.1.15,2013-02-01 14:21:00,
2013-02-01 09:23:00,27.3,13.7,29.82,NNW,342,6.0,12.0,56,0.00,,,0.00,Wunderground v.1.15,2013-02-01 14:23:00,
2013-02-01 09:24:00,27.3,13.7,29.82,North,1,6.0,12.0,56,0.00,,,0.00,Wunderground v.1.15,2013-02-01 14:24:00,
2013-02-01 09:26:00,27.2,13.6,29.82,NW,311,9.0,19.0,56,0.00,,,0.00,Wunderground v.1.15,2013-02-01 14:26:00,
2013-02-01 09:28:00,27.0,13.0,29.82,NNW,344,7.0,19.0,55,0.00,,,0.00,Wunderground v.1.15,2013-02-01 14:28:00,
2013-02-01 09:29:00,26.9,13.3,29.82,North,5,7.0,19.0,56,0.00,,,0.00,Wunderground v.1.15,2013-02-01 14:29:00,
2013-02-01 09:32:00,26.6,14.2,29.82,North,352,5.0,11.0,59,0.00,,,0.00,Wunderground v.1.15,2013-02-01 14:32:00,
2013-02-01 09:33:00,26.6,14.2,29.82,NNW,343,4.0,11.0,59,0.00,,,0.00,Wunderground v.1.15,2013-02-01 14:33:00,
2013-02-01 09:34:00,26.5,14.5,29.82,NNW,347,4.0,11.0,60,0.00,,,0.00,Wunderground v.1.15,2013-02-01 14:34:00,
2013-02-01 09:37:00,26.4,15.5,29.82,North,1,12.0,12.0,63,0.00,,,0.00,Wunderground v.1.15,2013-02-01 14:37:00,
2013-02-01 09:38:00,26.2,15.3,29.81,NNW,342,4.0,12.0,63,0.00,,,0.00,Wunderground v.1.15,2013-02-01 14:38:00,
2013-02-01 09:39:00,26.1,15.6,29.81,NNE,18,6.0,12.0,64,0.00,,,0.00,Wunderground v.1.15,2013-02-01 14:39:00,
2013-02-01 09:42:00,25.8,15.6,29.82,NW,320,3.0,7.0,65,0.00,,,0.00,Wunderground v.1.15,2013-02-01 14:42:00,
2013-02-01 09:43:00,25.7,15.9,29.82,North,352,7.0,8.0,66,0.00,,,0.00,Wunderground v.1.15,2013-02-01 14:43:00,
2013-02-01 09:44:00,25.6,15.8,29.82,NW,320,3.0,8.0,66,0.00,,,0.00,Wunderground v.1.15,2013-02-01 14:44:00,
2013-02-01 09:47:00,25.6,16.2,29.82,NNE,18,8.0,9.0,67,0.00,,,0.00,Wunderground v.1.15,2013-02-01 14:47:00,
2013-02-01 09:48:00,25.7,16.3,29.82,NE,53,2.0,9.0,67,0.00,,,0.00,Wunderground v.1.15,2013-02-01 14:48:00,
2013-02-01 09:49:00,25.8,16.3,29.82,North,357,3.0,9.0,67,0.00,,,0.00,Wunderground v.1.15,2013-02-01 14:49:00,
2013-02-01 09:50:00,25.9,16.8,29.82,North,8,2.0,4.0,68,0.00,,,0.00,Wunderground v.1.15,2013-02-01 14:50:00,
2013-02-01 09:52:00,26.2,16.7,29.82,NNW,337,3.0,8.0,67,0.00,,,0.00,Wunderground v.1.15,2013-02-01 14:52:00,
2013-02-01 09:53:00,26.3,16.5,29.82,North,350,6.0,9.0,66,0.00,,,0.00,Wunderground v.1.15,2013-02-01 14:53:00,
2013-02-01 09:54:00,26.4,16.6,29.82,NNW,330,5.0,9.0,66,0.00,,,0.00,Wunderground v.1.15,2013-02-01 14:54:00,
2013-02-01 09:55:00,26.5,16.7,29.82,NNW,335,6.0,9.0,66,0.00,,,0.00,Wunderground v.1.15,2013-02-01 14:55:00,
2013-02-01 09:57:00,26.6,16.1,29.82,NNW,342,4.0,16.0,64,0.00,,,0.00,Wunderground v.1.15,2013-02-01 14:57:00,
2013-02-01 09:58:00,26.6,16.4,29.82,NE,37,5.0,16.0,65,0.00,,,0.00,Wunderground v.1.15,2013-02-01 14:58:00,
2013-02-01 09:59:00,26.8,16.2,29.82,North,1,7.0,16.0,64,0.00,,,0.00,Wunderground v.1.15,2013-02-01 14:59:00,
2013-02-01 10:00:00,26.9,16.7,29.82,North,359,8.0,10.0,65,0.00,,,0.00,Wunderground v.1.15,2013-02-01 15:00:00,
2013-02-01 10:02:00,27.0,16.4,29.83,NNW,342,11.0,14.0,64,0.00,,,0.00,Wunderground v.1.15,2013-02-01 15:02:00,
2013-02-01 10:03:00,27.0,16.1,29.83,NNW,339,8.0,16.0,63,0.00,,,0.00,Wunderground v.1.15,2013-02-01 15:03:00,
2013-02-01 10:04:00,27.1,16.2,29.83,NNE,13,13.0,16.0,63,0.00,,,0.00,Wunderground v.1.15,2013-02-01 15:04:00,
2013-02-01 10:05:00,27.1,15.8,29.83,NNW,328,7.0,16.0,62,0.00,,,0.00,Wunderground v.1.15,2013-02-01 15:05:00,
2013-02-01 10:07:00,27.1,15.8,29.82,NE,50,2.0,16.0,62,0.00,,,0.00,Wunderground v.1.15,2013-02-01 15:07:00,
2013-02-01 10:08:00,27.3,16.0,29.82,NE,34,4.0,16.0,62,0.00,,,0.00,Wunderground v.1.15,2013-02-01 15:08:00,
2013-02-01 10:09:00,27.4,15.7,29.83,North,350,6.0,16.0,61,0.00,,,0.00,Wunderground v.1.15,2013-02-01 15:09:00,
2013-02-01 10:11:00,27.5,15.8,29.82,NNE,13,4.0,10.0,61,0.00,,,0.00,Wunderground v.1.15,2013-02-01 15:11:00,
2013-02-01 10:13:00,27.5,15.8,29.82,NE,35,5.0,10.0,61,0.00,,,0.00,Wunderground v.1.15,2013-02-01 15:13:00,
2013-02-01 10:14:00,27.6,15.9,29.82,ENE,60,8.0,12.0,61,0.00,,,0.00,Wunderground v.1.15,2013-02-01 15:14:00,
2013-02-01 10:15:00,27.5,15.8,29.82,NNW,341,5.0,12.0,61,0.00,,,0.00,Wunderground v.1.15,2013-02-01 15:15:00,
2013-02-01 10:16:00,27.6,16.3,29.82,NNW,343,2.0,12.0,62,0.00,,,0.00,Wunderground v.1.15,2013-02-01 15:16:00,
2013-02-01 10:18:00,27.7,16.4,29.82,North,359,11.0,12.0,62,0.00,,,0.00,Wunderground v.1.15,2013-02-01 15:18:00,
2013-02-01 10:19:00,27.8,15.7,29.82,North,4,12.0,16.0,60,0.00,,,0.00,Wunderground v.1.15,2013-02-01 15:19:00,
2013-02-01 10:20:00,27.8,14.9,29.83,North,355,6.0,13.0,58,0.00,,,0.00,Wunderground v.1.15,2013-02-01 15:20:00,
2013-02-01 10:21:00,27.7,14.8,29.83,WNW,300,2.0,13.0,58,0.00,,,0.00,Wunderground v.1.15,2013-02-01 15:21:00,
2013-02-01 10:23:00,27.7,14.8,29.82,North,359,10.0,13.0,58,0.00,,,0.00,Wunderground v.1.15,2013-02-01 15:23:00,
2013-02-01 10:24:00,27.6,14.7,29.83,NNW,339,6.0,13.0,58,0.00,,,0.00,Wunderground v.1.15,2013-02-01 15:24:00,
2013-02-01 10:25:00,27.6,14.7,29.83,WNW,302,6.0,13.0,58,0.00,,,0.00,Wunderground v.1.15,2013-02-01 15:25:00,
2013-02-01 10:27:00,27.4,14.9,29.82,North,3,6.0,13.0,59,0.00,,,0.00,Wunderground v.1.15,2013-02-01 15:27:00,
2013-02-01 10:28:00,27.3,14.8,29.82,North,352,14.0,14.0,59,0.00,,,0.00,Wunderground v.1.15,2013-02-01 15:28:00,
2013-02-01 10:29:00,27.2,14.8,29.83,North,4,4.0,14.0,59,0.00,,,0.00,Wunderground v.1.15,2013-02-01 15:29:00,
2013-02-01 10:30:00,27.2,14.8,29.83,NNE,26,3.0,6.0,59,0.00,,,0.00,Wunderground v.1.15,2013-02-01 15:30:00,
2013-02-01 10:32:00,27.1,14.7,29.82,NNW,327,4.0,9.0,59,0.00,,,0.00,Wunderground v.1.15,2013-02-01 15:32:00,
2013-02-01 10:33:00,27.1,14.7,29.83,North,352,3.0,9.0,59,0.00,,,0.00,Wunderground v.1.15,2013-02-01 15:33:00,
2013-02-01 10:35:00,27.1,14.3,29.83,North,350,7.0,9.0,58,0.00,,,0.00,Wunderground v.1.15,2013-02-01 15:35:00,
2013-02-01 10:37:00,27.1,14.3,29.82,NNE,33,2.0,9.0,58,0.00,,,0.00,Wunderground v.1.15,2013-02-01 15:37:00,
2013-02-01 10:38:00,27.2,15.1,29.83,NNW,340,9.0,10.0,60,0.00,,,0.00,Wunderground v.1.15,2013-02-01 15:38:00,
2013-02-01 10:40:00,27.1,14.3,29.83,North,354,1.0,5.0,58,0.00,,,0.00,Wunderground v.1.15,2013-02-01 15:40:00,
2013-02-01 10:41:00,27.1,14.3,29.82,NNE,25,3.0,7.0,58,0.00,,,0.00,Wunderground v.1.15,2013-02-01 15:41:00,
2013-02-01 10:42:00,27.0,13.8,29.82,ENE,58,4.0,10.0,57,0.00,,,0.00,Wunderground v.1.15,2013-02-01 15:42:00,
2013-02-01 10:43:00,27.0,13.8,29.83,NNE,25,3.0,10.0,57,0.00,,,0.00,Wunderground v.1.15,2013-02-01 15:43:00,
2013-02-01 10:45:00,27.0,13.4,29.83,NNW,331,7.0,10.0,56,0.00,,,0.00,Wunderground v.1.15,2013-02-01 15:45:00,
2013-02-01 10:46:00,26.9,13.3,29.83,NNW,348,9.0,16.0,56,0.00,,,0.00,Wunderground v.1.15,2013-02-01 15:46:00,
2013-02-01 10:47:00,26.8,13.2,29.83,NNW,342,10.0,16.0,56,0.00,,,0.00,Wunderground v.1.15,2013-02-01 15:47:00,
2013-02-01 10:48:00,26.7,13.5,29.83,NNW,342,9.0,16.0,57,0.00,,,0.00,Wunderground v.1.15,2013-02-01 15:48:00,
2013-02-01 10:50:00,26.6,13.4,29.83,North,8,6.0,6.0,57,0.00,,,0.00,Wunderground v.1.15,2013-02-01 15:50:00,
2013-02-01 10:51:00,26.6,13.0,29.83,NNW,343,9.0,12.0,56,0.00,,,0.00,Wunderground v.1.15,2013-02-01 15:51:00,
2013-02-01 10:53:00,26.6,13.0,29.83,NNW,338,10.0,15.0,56,0.00,,,0.00,Wunderground v.1.15,2013-02-01 15:53:00,
2013-02-01 10:54:00,26.5,12.5,29.83,NNW,335,10.0,16.0,55,0.00,,,0.00,Wunderground v.1.15,2013-02-01 15:54:00,
2013-02-01 10:55:00,26.5,12.1,29.83,NNE,16,7.0,16.0,54,0.00,,,0.00,Wunderground v.1.15,2013-02-01 15:55:00,
2013-02-01 10:56:00,26.5,12.5,29.83,NE,39,9.0,16.0,55,0.00,,,0.00,Wunderground v.1.15,2013-02-01 15:56:00,
2013-02-01 10:59:00,26.5,12.5,29.83,NNW,346,5.0,16.0,55,0.00,,,0.00,Wunderground v.1.15,2013-02-01 15:59:00,
2013-02-01 11:00:00,26.6,12.6,29.83,NNW,332,7.0,8.0,55,0.00,,,0.00,Wunderground v.1.15,2013-02-01 16:00:00,
2013-02-01 11:01:00,26.6,11.7,29.83,North,10,8.0,11.0,53,0.00,,,0.00,Wunderground v.1.15,2013-02-01 16:01:00,
2013-02-01 11:04:00,26.6,11.7,29.83,NNW,342,5.0,13.0,53,0.00,,,0.00,Wunderground v.1.15,2013-02-01 16:04:00,
2013-02-01 11:05:00,26.6,11.7,29.83,North,355,5.0,13.0,53,0.00,,,0.00,Wunderground v.1.15,2013-02-01 16:05:00,
2013-02-01 11:07:00,26.7,11.8,29.83,NNW,347,7.0,13.0,53,0.00,,,0.00,Wunderground v.1.15,2013-02-01 16:07:00,
2013-02-01 11:09:00,26.8,11.9,29.83,North,4,2.0,13.0,53,0.00,,,0.00,Wunderground v.1.15,2013-02-01 16:09:00,
2013-02-01 11:10:00,26.9,12.5,29.83,North,350,7.0,8.0,54,0.00,,,0.00,Wunderground v.1.15,2013-02-01 16:10:00,
2013-02-01 11:12:00,27.0,12.1,29.83,NNW,341,9.0,13.0,53,0.00,,,0.00,Wunderground v.1.15,2013-02-01 16:12:00,
2013-02-01 11:14:00,27.1,12.6,29.83,NNW,342,4.0,13.0,54,0.00,,,0.00,Wunderground v.1.15,2013-02-01 16:14:00,
2013-02-01 11:15:00,27.3,12.8,29.83,NNE,18,6.0,13.0,54,0.00,,,0.00,Wunderground v.1.15,2013-02-01 16:15:00,
2013-02-01 11:17:00,27.4,12.9,29.83,NW,315,5.0,13.0,54,0.00,,,0.00,Wunderground v.1.15,2013-02-01 16:17:00,
2013-02-01 11:19:00,27.5,12.2,29.83,NW,326,6.0,13.0,52,0.00,,,0.00,Wunderground v.1.15,2013-02-01 16:19:00,
2013-02-01 11:20:00,27.5,12.6,29.83,NW,307,6.0,9.0,53,0.00,,,0.00,Wunderground v.1.15,2013-02-01 16:20:00,
2013-02-01 11:22:00,27.4,12.1,29.83,NNW,327,3.0,9.0,52,0.00,,,0.00,Wunderground v.1.15,2013-02-01 16:22:00,
2013-02-01 11:24:00,27.4,12.5,29.83,NNW,345,9.0,10.0,53,0.00,,,0.00,Wunderground v.1.15,2013-02-01 16:24:00,
2013-02-01 11:25:00,27.4,12.9,29.83,NNE,18,13.0,13.0,54,0.00,,,0.00,Wunderground v.1.15,2013-02-01 16:25:00,
2013-02-01 11:26:00,27.4,12.5,29.83,North,10,7.0,13.0,53,0.00,,,0.00,Wunderground v.1.15,2013-02-01 16:26:00,
2013-02-01 11:27:00,27.3,12.4,29.83,NW,325,6.0,16.0,53,0.00,,,0.00,Wunderground v.1.15,2013-02-01 16:27:00,
2013-02-01 11:29:00,27.0,12.5,29.83,North,9,5.0,16.0,54,0.00,,,0.00,Wunderground v.1.15,2013-02-01 16:29:00,
2013-02-01 11:30:00,26.9,12.5,29.83,WNW,302,1.0,7.0,54,0.00,,,0.00,Wunderground v.1.15,2013-02-01 16:30:00,
2013-02-01 11:31:00,26.9,12.9,29.82,NNW,333,2.0,7.0,55,0.00,,,0.00,Wunderground v.1.15,2013-02-01 16:31:00,
2013-02-01 11:32:00,26.9,12.9,29.82,North,357,5.0,7.0,55,0.00,,,0.00,Wunderground v.1.15,2013-02-01 16:32:00,
2013-02-01 11:34:00,26.9,12.5,29.83,NNW,333,6.0,11.0,54,0.00,,,0.00,Wunderground v.1.15,2013-02-01 16:34:00,
2013-02-01 11:35:00,26.9,12.5,29.82,North,9,4.0,12.0,54,0.00,,,0.00,Wunderground v.1.15,2013-02-01 16:35:00,
2013-02-01 11:36:00,26.9,12.5,29.83,NE,53,5.0,12.0,54,0.00,,,0.00,Wunderground v.1.15,2013-02-01 16:36:00,
2013-02-01 11:37:00,26.9,12.9,29.82,NNW,345,5.0,16.0,55,0.00,,,0.00,Wunderground v.1.15,2013-02-01 16:37:00,
2013-02-01 11:39:00,26.9,12.9,29.82,NE,43,8.0,16.0,55,0.00,,,0.00,Wunderground v.1.15,2013-02-01 16:39:00,
2013-02-01 11:40:00,26.9,12.5,29.82,NE,38,4.0,13.0,54,0.00,,,0.00,Wunderground v.1.15,2013-02-01 16:40:00,
2013-02-01 11:41:00,26.9,12.9,29.83,NW,325,6.0,13.0,55,0.00,,,0.00,Wunderground v.1.15,2013-02-01 16:41:00,
2013-02-01 11:43:00,26.9,12.9,29.82,NNW,345,15.0,16.0,55,0.00,,,0.00,Wunderground v.1.15,2013-02-01 16:43:00,
2013-02-01 11:44:00,26.9,13.3,29.82,North,9,3.0,16.0,56,0.00,,,0.00,Wunderground v.1.15,2013-02-01 16:44:00,
2013-02-01 11:45:00,27.0,13.0,29.82,NNE,16,8.0,16.0,55,0.00,,,0.00,Wunderground v.1.15,2013-02-01 16:45:00,
2013-02-01 11:46:00,27.0,12.5,29.82,NNW,333,6.0,16.0,54,0.00,,,0.00,Wunderground v.1.15,2013-02-01 16:46:00,
2013-02-01 11:48:00,27.1,12.2,29.82,NNW,345,4.0,16.0,53,0.00,,,0.00,Wunderground v.1.15,2013-02-01 16:48:00,
2013-02-01 11:50:00,27.1,12.6,29.82,NNW,339,2.0,6.0,54,0.00,,,0.00,Wunderground v.1.15,2013-02-01 16:50:00,
2013-02-01 11:51:00,27.3,12.0,29.82,North,357,6.0,8.0,52,0.00,,,0.00,Wunderground v.1.15,2013-02-01 16:51:00,
2013-02-01 11:53:00,27.4,12.5,29.82,North,1,3.0,10.0,53,0.00,,,0.00,Wunderground v.1.15,2013-02-01 16:53:00,
2013-02-01 11:55:00,27.6,11.8,29.81,NE,50,5.0,10.0,51,0.00,,,0.00,Wunderground v.1.15,2013-02-01 16:55:00,
2013-02-01 11:56:00,27.7,11.5,29.81,NNW,335,5.0,10.0,50,0.00,,,0.00,Wunderground v.1.15,2013-02-01 16:56:00,
2013-02-01 11:58:00,27.8,12.0,29.81,North,4,5.0,10.0,51,0.00,,,0.00,Wunderground v.1.15,2013-02-01 16:58:00,
2013-02-01 12:00:00,28.1,11.8,29.81,NE,38,5.0,6.0,50,0.00,,,0.00,Wunderground v.1.15,2013-02-01 17:00:00,
2013-02-01 12:02:00,28.2,11.5,29.81,NW,319,6.0,12.0,49,0.00,,,0.00,Wunderground v.1.15,2013-02-01 17:02:00,
2013-02-01 12:03:00,28.3,10.6,29.81,NE,42,4.0,12.0,47,0.00,,,0.00,Wunderground v.1.15,2013-02-01 17:03:00,
2013-02-01 12:05:00,28.5,9.8,29.81,NNW,344,8.0,12.0,45,0.00,,,0.00,Wunderground v.1.15,2013-02-01 17:05:00,
2013-02-01 12:06:00,28.4,10.2,29.81,NNW,341,8.0,12.0,46,0.00,,,0.00,Wunderground v.1.15,2013-02-01 17:06:00,
2013-02-01 12:07:00,28.5,9.3,29.81,NE,53,4.0,12.0,44,0.00,,,0.00,Wunderground v.1.15,2013-02-01 17:07:00,
2013-02-01 12:08:00,28.6,10.4,29.80,NNE,18,9.0,12.0,46,0.00,,,0.00,Wunderground v.1.15,2013-02-01 17:08:00,
2013-02-01 12:11:00,28.7,9.5,29.80,North,6,12.0,12.0,44,0.00,,,0.00,Wunderground v.1.15,2013-02-01 17:11:00,
2013-02-01 12:12:00,28.7,9.0,29.80,North,359,5.0,12.0,43,0.00,,,0.00,Wunderground v.1.15,2013-02-01 17:12:00,
2013-02-01 12:13:00,28.6,8.4,29.80,North,11,9.0,12.0,42,0.00,,,0.00,Wunderground v.1.15,2013-02-01 17:13:00,
2013-02-01 12:16:00,28.7,8.5,29.80,North,357,10.0,16.0,42,0.00,,,0.00,Wunderground v.1.15,2013-02-01 17:16:00,
2013-02-01 12:17:00,28.7,8.5,29.80,North,10,12.0,16.0,42,0.00,,,0.00,Wunderground v.1.15,2013-02-01 17:17:00,
2013-02-01 12:18:00,28.7,8.5,29.80,North,9,10.0,16.0,42,0.00,,,0.00,Wunderground v.1.15,2013-02-01 17:18:00,
2013-02-01 12:21:00,28.8,8.0,29.79,NNW,346,5.0,13.0,41,0.00,,,0.00,Wunderground v.1.15,2013-02-01 17:21:00,
2013-02-01 12:22:00,28.8,8.0,29.79,WNW,298,4.0,13.0,41,0.00,,,0.00,Wunderground v.1.15,2013-02-01 17:22:00,
2013-02-01 12:23:00,28.8,8.0,29.79,North,350,7.0,13.0,41,0.00,,,0.00,Wunderground v.1.15,2013-02-01 17:23:00,
2013-02-01 12:27:00,29.1,8.8,29.78,North,355,3.0,13.0,42,0.00,,,0.00,Wunderground v.1.15,2013-02-01 17:27:00,
2013-02-01 12:28:00,29.3,9.5,29.78,North,349,5.0,13.0,43,0.00,,,0.00,Wunderground v.1.15,2013-02-01 17:28:00,
2013-02-01 12:32:00,29.6,9.3,29.79,NNW,327,8.0,8.0,42,0.00,,,0.00,Wunderground v.1.15,2013-02-01 17:32:00,
2013-02-01 12:33:00,29.8,9.5,29.78,NW,309,4.0,10.0,42,0.00,,,0.00,Wunderground v.1.15,2013-02-01 17:33:00,
2013-02-01 12:37:00,30.1,9.2,29.79,NW,310,5.0,12.0,41,0.00,,,0.00,Wunderground v.1.15,2013-02-01 17:37:00,
2013-02-01 12:38:00,30.1,9.2,29.78,NE,45,6.0,12.0,41,0.00,,,0.00,Wunderground v.1.15,2013-02-01 17:38:00,
2013-02-01 12:39:00,30.1,9.2,29.79,ENE,58,6.0,12.0,41,0.00,,,0.00,Wunderground v.1.15,2013-02-01 17:39:00,
2013-02-01 12:42:00,30.2,9.3,29.79,NNE,18,6.0,13.0,41,0.00,,,0.00,Wunderground v.1.15,2013-02-01 17:42:00,
2013-02-01 12:43:00,30.2,8.7,29.79,NE,44,7.0,13.0,40,0.00,,,0.00,Wunderground v.1.15,2013-02-01 17:43:00,
2013-02-01 12:44:00,30.2,8.7,29.79,North,9,6.0,13.0,40,0.00,,,0.00,Wunderground v.1.15,2013-02-01 17:44:00,
2013-02-01 12:47:00,30.1,9.2,29.79,NNE,30,4.0,13.0,41,0.00,,,0.00,Wunderground v.1.15,2013-02-01 17:47:00,
2013-02-01 12:48:00,30.1,9.7,29.79,NNW,338,4.0,13.0,42,0.00,,,0.00,Wunderground v.1.15,2013-02-01 17:48:00,
2013-02-01 12:49:00,30.1,9.7,29.79,NNE,16,3.0,13.0,42,0.00,,,0.00,Wunderground v.1.15,2013-02-01 17:49:00,
2013-02-01 12:52:00,30.3,9.4,29.79,NNW,335,7.0,8.0,41,0.00,,,0.00,Wunderground v.1.15,2013-02-01 17:52:00,
2013-02-01 12:53:00,30.3,9.4,29.79,North,3,9.0,17.0,41,0.00,,,0.00,Wunderground v.1.15,2013-02-01 17:53:00,
2013-02-01 12:54:00,30.2,9.3,29.79,WNW,295,7.0,17.0,41,0.00,,,0.00,Wunderground v.1.15,2013-02-01 17:54:00,
2013-02-01 12:57:00,30.5,10.1,29.80,NNW,340,2.0,17.0,42,0.00,,,0.00,Wunderground v.1.15,2013-02-01 17:57:00,
2013-02-01 12:58:00,30.6,10.2,29.79,North,357,5.0,17.0,42,0.00,,,0.00,Wunderground v.1.15,2013-02-01 17:58:00,
2013-02-01 12:59:00,30.6,10.2,29.79,NNW,348,2.0,17.0,42,0.00,,,0.00,Wunderground v.1.15,2013-02-01 17:59:00,
2013-02-01 13:03:00,30.7,10.3,29.80,NE,43,7.0,13.0,42,0.00,,,0.00,Wunderground v.1.15,2013-02-01 18:03:00,
2013-02-01 13:04:00,30.5,9.0,29.80,NNW,344,6.0,13.0,40,0.00,,,0.00,Wunderground v.1.15,2013-02-01 18:04:00,
2013-02-01 13:05:00,30.5,9.0,29.80,NNW,345,5.0,13.0,40,0.00,,,0.00,Wunderground v.1.15,2013-02-01 18:05:00,
2013-02-01 13:08:00,30.0,9.1,29.80,NW,315,9.0,14.0,41,0.00,,,0.00,Wunderground v.1.15,2013-02-01 18:08:00,
2013-02-01 13:09:00,29.8,8.4,29.80,NW,326,4.0,14.0,40,0.00,,,0.00,Wunderground v.1.15,2013-02-01 18:09:00,
2013-02-01 13:10:00,29.8,8.9,29.80,NNE,25,8.0,14.0,41,0.00,,,0.00,Wunderground v.1.15,2013-02-01 18:10:00,
2013-02-01 13:13:00,29.8,8.4,29.80,North,358,11.0,12.0,40,0.00,,,0.00,Wunderground v.1.15,2013-02-01 18:13:00,
2013-02-01 13:14:00,29.7,8.8,29.80,North,6,11.0,13.0,41,0.00,,,0.00,Wunderground v.1.15,2013-02-01 18:14:00,
2013-02-01 13:15:00,29.7,8.8,29.80,NNE,16,10.0,13.0,41,0.00,,,0.00,Wunderground v.1.15,2013-02-01 18:15:00,
2013-02-01 13:18:00,29.5,8.1,29.80,NNW,340,8.0,19.0,40,0.00,,,0.00,Wunderground v.1.15,2013-02-01 18:18:00,
2013-02-01 13:19:00,29.4,8.0,29.80,NNW,343,1.0,19.0,40,0.00,,,0.00,Wunderground v.1.15,2013-02-01 18:19:00,
2013-02-01 13:20:00,29.4,8.0,29.80,NNW,342,2.0,19.0,40,0.00,,,0.00,Wunderground v.1.15,2013-02-01 18:20:00,
2013-02-01 13:23:00,29.3,7.9,29.80,NNE,20,4.0,14.0,40,0.00,,,0.00,Wunderground v.1.15,2013-02-01 18:23:00,
2013-02-01 13:25:00,29.1,8.3,29.80,NNE,22,8.0,14.0,41,0.00,,,0.00,Wunderground v.1.15,2013-02-01 18:25:00,
2013-02-01 13:28:00,28.9,9.2,29.80,NNE,26,4.0,14.0,43,0.00,,,0.00,Wunderground v.1.15,2013-02-01 18:28:00,
2013-02-01 13:30:00,28.9,8.1,29.80,NNW,340,5.0,6.0,41,0.00,,,0.00,Wunderground v.1.15,2013-02-01 18:30:00,
2013-02-01 13:33:00,28.8,7.5,29.81,NNW,343,8.0,18.0,40,0.00,,,0.00,Wunderground v.1.15,2013-02-01 18:33:00,
2013-02-01 13:35:00,28.7,7.4,29.81,NE,51,4.0,18.0,40,0.00,,,0.00,Wunderground v.1.15,2013-02-01 18:35:00,
2013-02-01 13:38:00,28.8,8.6,29.81,NW,315,3.0,18.0,42,0.00,,,0.00,Wunderground v.1.15,2013-02-01 18:38:00,
2013-02-01 13:40:00,29.0,8.7,29.80,NNW,340,8.0,12.0,42,0.00,,,0.00,Wunderground v.1.15,2013-02-01 18:40:00,
2013-02-01 13:44:00,29.1,8.3,29.80,ENE,67,3.0,12.0,41,0.00,,,0.00,Wunderground v.1.15,2013-02-01 18:44:00,
2013-02-01 13:45:00,29.1,8.3,29.80,NW,318,6.0,12.0,41,0.00,,,0.00,Wunderground v.1.15,2013-02-01 18:45:00,
2013-02-01 13:49:00,28.9,8.6,29.80,North,6,5.0,15.0,42,0.00,,,0.00,Wunderground v.1.15,2013-02-01 18:49:00,
2013-02-01 13:50:00,29.0,8.7,29.80,North,10,5.0,7.0,42,0.00,,,0.00,Wunderground v.1.15,2013-02-01 18:50:00,
2013-02-01 13:54:00,29.0,7.7,29.81,NNE,15,9.0,13.0,40,0.00,,,0.00,Wunderground v.1.15,2013-02-01 18:54:00,
2013-02-01 13:55:00,28.9,7.6,29.81,NNW,345,8.0,13.0,40,0.00,,,0.00,Wunderground v.1.15,2013-02-01 18:55:00,
2013-02-01 13:56:00,28.9,7.6,29.81,North,11,6.0,13.0,40,0.00,,,0.00,Wunderground v.1.15,2013-02-01 18:56:00,
2013-02-01 13:59:00,28.8,8.0,29.81,NE,37,3.0,13.0,41,0.00,,,0.00,Wunderground v.1.15,2013-02-01 18:59:00,
2013-02-01 14:00:00,28.7,7.9,29.81,NNE,32,3.0,6.0,41,0.00,,,0.00,Wunderground v.1.15,2013-02-01 19:00:00,
2013-02-01 14:01:00,28.7,7.9,29.81,East,86,2.0,6.0,41,0.00,,,0.00,Wunderground v.1.15,2013-02-01 19:01:00,
2013-02-01 14:05:00,28.9,8.1,29.81,NNW,333,6.0,9.0,41,0.00,,,0.00,Wunderground v.1.15,2013-02-01 19:05:00,
2013-02-01 14:06:00,29.0,8.2,29.81,NE,47,6.0,9.0,41,0.00,,,0.00,Wunderground v.1.15,2013-02-01 19:06:00,
2013-02-01 14:10:00,29.3,8.5,29.81,East,94,11.0,11.0,41,0.00,,,0.00,Wunderground v.1.15,2013-02-01 19:10:00,
2013-02-01 14:11:00,29.2,7.8,29.82,NNE,22,7.0,12.0,40,0.00,,,0.00,Wunderground v.1.15,2013-02-01 19:11:00,
2013-02-01 14:15:00,29.0,8.2,29.82,NNE,13,3.0,12.0,41,0.00,,,0.00,Wunderground v.1.15,2013-02-01 19:15:00,
2013-02-01 14:16:00,28.9,7.6,29.82,NNW,335,3.0,12.0,40,0.00,,,0.00,Wunderground v.1.15,2013-02-01 19:16:00,
2013-02-01 14:20:00,28.6,7.3,29.82,North,9,3.0,5.0,40,0.00,,,0.00,Wunderground v.1.15,2013-02-01 19:20:00,
2013-02-01 14:21:00,28.6,7.8,29.82,NE,50,4.0,8.0,41,0.00,,,0.00,Wunderground v.1.15,2013-02-01 19:21:00,
2013-02-01 14:25:00,28.4,8.2,29.82,NE,37,7.0,19.0,42,0.00,,,0.00,Wunderground v.1.15,2013-02-01 19:25:00,
2013-02-01 14:26:00,28.3,7.6,29.82,North,356,4.0,19.0,41,0.00,,,0.00,Wunderground v.1.15,2013-02-01 19:26:00,
2013-02-01 14:27:00,28.3,7.6,29.82,NE,38,3.0,19.0,41,0.00,,,0.00,Wunderground v.1.15,2013-02-01 19:27:00,
2013-02-01 14:30:00,28.2,7.5,29.82,North,6,9.0,13.0,41,0.00,,,0.00,Wunderground v.1.15,2013-02-01 19:30:00,
2013-02-01 14:31:00,28.1,6.3,29.82,SSW,195,4.0,13.0,39,0.00,,,0.00,Wunderground v.1.15,2013-02-01 19:31:00,
2013-02-01 14:32:00,28.1,6.3,29.82,NNE,19,5.0,13.0,39,0.00,,,0.00,Wunderground v.1.15,2013-02-01 19:32:00,
2013-02-01 14:35:00,28.0,6.8,29.82,NNW,328,6.0,13.0,40,0.00,,,0.00,Wunderground v.1.15,2013-02-01 19:35:00,
2013-02-01 14:36:00,28.0,6.8,29.82,North,1,9.0,13.0,40,0.00,,,0.00,Wunderground v.1.15,2013-02-01 19:36:00,
2013-02-01 14:37:00,28.0,6.8,29.82,NNE,22,7.0,13.0,40,0.00,,,0.00,Wunderground v.1.15,2013-02-01 19:37:00,
2013-02-01 14:40:00,28.1,6.3,29.83,NW,319,13.0,13.0,39,0.00,,,0.00,Wunderground v.1.15,2013-02-01 19:40:00,
2013-02-01 14:41:00,28.0,5.6,29.83,NW,320,10.0,22.0,38,0.00,,,0.00,Wunderground v.1.15,2013-02-01 19:41:00,
2013-02-01 14:42:00,28.0,6.2,29.83,NNW,333,9.0,22.0,39,0.00,,,0.00,Wunderground v.1.15,2013-02-01 19:42:00,
2013-02-01 14:45:00,27.8,6.0,29.82,North,353,25.0,27.0,39,0.00,,,0.00,Wunderground v.1.15,2013-02-01 19:45:00,
2013-02-01 14:47:00,27.7,5.9,29.83,North,8,9.0,27.0,39,0.00,,,0.00,Wunderground v.1.15,2013-02-01 19:47:00,
2013-02-01 14:50:00,27.8,6.6,29.83,North,349,16.0,19.0,40,0.00,,,0.00,Wunderground v.1.15,2013-02-01 19:50:00,
2013-02-01 14:52:00,27.7,6.5,29.83,NNW,345,2.0,19.0,40,0.00,,,0.00,Wunderground v.1.15,2013-02-01 19:52:00,
2013-02-01 14:56:00,27.6,6.9,29.83,North,11,3.0,19.0,41,0.00,,,0.00,Wunderground v.1.15,2013-02-01 19:56:00,
2013-02-01 14:57:00,27.6,6.4,29.83,NNW,343,8.0,19.0,40,0.00,,,0.00,Wunderground v.1.15,2013-02-01 19:57:00,
2013-02-01 15:01:00,27.5,6.3,29.84,East,92,4.0,14.0,40,0.00,,,0.00,Wunderground v.1.15,2013-02-01 20:01:00,
2013-02-01 15:02:00,27.4,6.8,29.84,NNE,23,7.0,14.0,41,0.00,,,0.00,Wunderground v.1.15,2013-02-01 20:02:00,
2013-02-01 15:03:00,27.4,6.8,29.84,NNE,18,10.0,14.0,41,0.00,,,0.00,Wunderground v.1.15,2013-02-01 20:03:00,
2013-02-01 15:06:00,27.4,7.3,29.84,WNW,291,11.0,19.0,42,0.00,,,0.00,Wunderground v.1.15,2013-02-01 20:06:00,
2013-02-01 15:07:00,27.4,7.3,29.84,NW,313,5.0,21.0,42,0.00,,,0.00,Wunderground v.1.15,2013-02-01 20:07:00,
2013-02-01 15:08:00,27.3,7.2,29.85,North,1,18.0,21.0,42,0.00,,,0.00,Wunderground v.1.15,2013-02-01 20:08:00,
2013-02-01 15:11:00,27.2,7.6,29.85,North,9,10.0,19.0,43,0.00,,,0.00,Wunderground v.1.15,2013-02-01 20:11:00,
2013-02-01 15:12:00,27.1,8.0,29.85,NNW,336,11.0,19.0,44,0.00,,,0.00,Wunderground v.1.15,2013-02-01 20:12:00,
2013-02-01 15:13:00,27.1,8.0,29.85,North,351,9.0,19.0,44,0.00,,,0.00,Wunderground v.1.15,2013-02-01 20:13:00,
2013-02-01 15:14:00,27.1,8.0,29.85,NNW,345,7.0,19.0,44,0.00,,,0.00,Wunderground v.1.15,2013-02-01 20:14:00,
2013-02-01 15:16:00,27.1,8.5,29.85,NW,320,4.0,19.0,45,0.00,,,0.00,Wunderground v.1.15,2013-02-01 20:16:00,
2013-02-01 15:18:00,27.1,8.0,29.85,NNW,331,3.0,19.0,44,0.00,,,0.00,Wunderground v.1.15,2013-02-01 20:18:00,
2013-02-01 15:19:00,27.2,8.1,29.85,North,9,3.0,19.0,44,0.00,,,0.00,Wunderground v.1.15,2013-02-01 20:19:00,
2013-02-01 15:21:00,27.2,8.1,29.85,NNE,21,8.0,11.0,44,0.00,,,0.00,Wunderground v.1.15,2013-02-01 20:21:00,
2013-02-01 15:23:00,27.2,8.6,29.86,NE,41,11.0,23.0,45,0.00,,,0.00,Wunderground v.1.15,2013-02-01 20:23:00,
2013-02-01 15:24:00,27.1,8.5,29.86,North,6,7.0,23.0,45,0.00,,,0.00,Wunderground v.1.15,2013-02-01 20:24:00,
2013-02-01 15:26:00,26.9,9.3,29.86,NNW,337,4.0,23.0,47,0.00,,,0.00,Wunderground v.1.15,2013-02-01 20:26:00,
2013-02-01 15:28:00,26.9,9.3,29.86,NNW,335,3.0,23.0,47,0.00,,,0.00,Wunderground v.1.15,2013-02-01 20:28:00,
2013-02-01 15:29:00,26.8,9.2,29.86,North,354,7.0,23.0,47,0.00,,,0.00,Wunderground v.1.15,2013-02-01 20:29:00,
2013-02-01 15:31:00,26.6,9.5,29.86,NNE,32,6.0,13.0,48,0.00,,,0.00,Wunderground v.1.15,2013-02-01 20:31:00,
2013-02-01 15:33:00,26.5,9.9,29.87,NE,53,17.0,18.0,49,0.00,,,0.00,Wunderground v.1.15,2013-02-01 20:33:00,
2013-02-01 15:34:00,26.5,10.3,29.87,NNW,329,10.0,18.0,50,0.00,,,0.00,Wunderground v.1.15,2013-02-01 20:34:00,
2013-02-01 15:36:00,26.4,9.8,29.87,NNE,16,8.0,18.0,49,0.00,,,0.00,Wunderground v.1.15,2013-02-01 20:36:00,
2013-02-01 15:38:00,26.3,9.7,29.86,North,360,10.0,18.0,49,0.00,,,0.00,Wunderground v.1.15,2013-02-01 20:38:00,
2013-02-01 15:40:00,26.3,9.7,29.87,North,6,4.0,7.0,49,0.00,,,0.00,Wunderground v.1.15,2013-02-01 20:40:00,
2013-02-01 15:42:00,26.3,9.2,29.86,NNW,340,11.0,15.0,48,0.00,,,0.00,Wunderground v.1.15,2013-02-01 20:42:00,
2013-02-01 15:43:00,26.2,9.2,29.87,NNW,335,7.0,15.0,48,0.00,,,0.00,Wunderground v.1.15,2013-02-01 20:43:00,
2013-02-01 15:45:00,26.1,9.5,29.87,NW,313,2.0,15.0,49,0.00,,,0.00,Wunderground v.1.15,2013-02-01 20:45:00,
2013-02-01 15:47:00,26.1,9.5,29.87,NE,49,3.0,15.0,49,0.00,,,0.00,Wunderground v.1.15,2013-02-01 20:47:00,
2013-02-01 15:48:00,26.1,9.1,29.87,NNE,16,3.0,15.0,48,0.00,,,0.00,Wunderground v.1.15,2013-02-01 20:48:00,
2013-02-01 15:51:00,26.1,9.1,29.87,NNW,338,6.0,9.0,48,0.00,,,0.00,Wunderground v.1.15,2013-02-01 20:51:00,
2013-02-01 15:53:00,26.0,8.5,29.87,North,11,7.0,12.0,47,0.00,,,0.00,Wunderground v.1.15,2013-02-01 20:53:00,
2013-02-01 15:54:00,26.0,8.0,29.87,NNW,336,7.0,12.0,46,0.00,,,0.00,Wunderground v.1.15,2013-02-01 20:54:00,
2013-02-01 15:56:00,26.0,8.0,29.88,NNW,336,8.0,12.0,46,0.00,,,0.00,Wunderground v.1.15,2013-02-01 20:56:00,
2013-02-01 15:58:00,25.9,8.4,29.88,NNW,332,7.0,16.0,47,0.00,,,0.00,Wunderground v.1.15,2013-02-01 20:58:00,
2013-02-01 15:59:00,25.9,8.4,29.88,North,350,7.0,16.0,47,0.00,,,0.00,Wunderground v.1.15,2013-02-01 20:59:00,
2013-02-01 16:02:00,25.8,9.2,29.89,NW,320,7.0,17.0,49,0.00,,,0.00,Wunderground v.1.15,2013-02-01 21:02:00,
2013-02-01 16:04:00,25.6,10.0,29.89,NNW,343,7.0,22.0,51,0.00,,,0.00,Wunderground v.1.15,2013-02-01 21:04:00,
2013-02-01 16:07:00,25.4,9.8,29.88,North,360,6.0,22.0,51,0.00,,,0.00,Wunderground v.1.15,2013-02-01 21:07:00,
2013-02-01 16:09:00,25.5,9.9,29.89,NW,309,6.0,22.0,51,0.00,,,0.00,Wunderground v.1.15,2013-02-01 21:09:00,
2013-02-01 16:10:00,25.5,9.4,29.89,NNW,345,7.0,22.0,50,0.00,,,0.00,Wunderground v.1.15,2013-02-01 21:10:00,
2013-02-01 16:12:00,25.6,10.0,29.89,North,353,7.0,17.0,51,0.00,,,0.00,Wunderground v.1.15,2013-02-01 21:12:00,
2013-02-01 16:14:00,25.7,10.0,29.89,NNE,15,8.0,17.0,51,0.00,,,0.00,Wunderground v.1.15,2013-02-01 21:14:00,
2013-02-01 16:15:00,25.6,10.0,29.89,NNE,16,10.0,17.0,51,0.00,,,0.00,Wunderground v.1.15,2013-02-01 21:15:00,
2013-02-01 16:17:00,25.6,9.5,29.89,NNE,13,10.0,23.0,50,0.00,,,0.00,Wunderground v.1.15,2013-02-01 21:17:00,
2013-02-01 16:19:00,25.5,9.9,29.90,NNW,339,12.0,23.0,51,0.00,,,0.00,Wunderground v.1.15,2013-02-01 21:19:00,
2013-02-01 16:20:00,25.5,9.9,29.90,NW,314,5.0,10.0,51,0.00,,,0.00,Wunderground v.1.15,2013-02-01 21:20:00,
2013-02-01 16:22:00,25.5,9.4,29.90,North,11,8.0,17.0,50,0.00,,,0.00,Wunderground v.1.15,2013-02-01 21:22:00,
2013-02-01 16:24:00,25.5,9.4,29.90,NW,304,7.0,17.0,50,0.00,,,0.00,Wunderground v.1.15,2013-02-01 21:24:00,
2013-02-01 16:25:00,25.5,9.4,29.90,North,350,7.0,17.0,50,0.00,,,0.00,Wunderground v.1.15,2013-02-01 21:25:00,
2013-02-01 16:27:00,25.4,9.3,29.90,NE,51,7.0,19.0,50,0.00,,,0.00,Wunderground v.1.15,2013-02-01 21:27:00,
2013-02-01 16:29:00,25.4,9.8,29.90,NNE,20,5.0,19.0,51,0.00,,,0.00,Wunderground v.1.15,2013-02-01 21:29:00,
2013-02-01 16:30:00,25.4,10.2,29.90,NNW,348,3.0,8.0,52,0.00,,,0.00,Wunderground v.1.15,2013-02-01 21:30:00,
2013-02-01 16:32:00,25.3,9.7,29.90,NNW,343,4.0,12.0,51,0.00,,,0.00,Wunderground v.1.15,2013-02-01 21:32:00,
2013-02-01 16:34:00,25.2,10.0,29.91,North,354,4.0,12.0,52,0.00,,,0.00,Wunderground v.1.15,2013-02-01 21:34:00,
2013-02-01 16:36:00,25.1,9.5,29.91,NNW,338,6.0,12.0,51,0.00,,,0.00,Wunderground v.1.15,2013-02-01 21:36:00,
2013-02-01 16:37:00,25.1,9.9,29.91,NNE,26,7.0,14.0,52,0.00,,,0.00,Wunderground v.1.15,2013-02-01 21:37:00,
2013-02-01 16:39:00,25.1,9.5,29.91,NNE,18,3.0,14.0,51,0.00,,,0.00,Wunderground v.1.15,2013-02-01 21:39:00,
2013-02-01 16:40:00,25.1,9.5,29.91,North,1,3.0,14.0,51,0.00,,,0.00,Wunderground v.1.15,2013-02-01 21:40:00,
2013-02-01 16:41:00,25.1,9.9,29.91,NE,53,4.0,11.0,52,0.00,,,0.00,Wunderground v.1.15,2013-02-01 21:41:00,
2013-02-01 16:42:00,25.2,10.0,29.91,East,89,2.0,11.0,52,0.00,,,0.00,Wunderground v.1.15,2013-02-01 21:42:00,
2013-02-01 16:45:00,25.3,9.7,29.92,ENE,68,10.0,12.0,51,0.00,,,0.00,Wunderground v.1.15,2013-02-01 21:45:00,
2013-02-01 16:46:00,25.4,8.9,29.91,North,6,9.0,16.0,49,0.00,,,0.00,Wunderground v.1.15,2013-02-01 21:46:00,
2013-02-01 16:48:00,25.4,8.4,29.92,North,354,4.0,23.0,48,0.00,,,0.00,Wunderground v.1.15,2013-02-01 21:48:00,
2013-02-01 16:50:00,25.4,7.5,29.92,NW,315,11.0,23.0,46,0.00,,,0.00,Wunderground v.1.15,2013-02-01 21:50:00,
2013-02-01 16:51:00,25.4,7.5,29.92,NNW,329,6.0,10.0,46,0.00,,,0.00,Wunderground v.1.15,2013-02-01 21:51:00,
2013-02-01 16:53:00,25.3,7.9,29.92,NNE,18,6.0,10.0,47,0.00,,,0.00,Wunderground v.1.15,2013-02-01 21:53:00,
2013-02-01 16:55:00,25.2,7.8,29.92,NNW,340,6.0,11.0,47,0.00,,,0.00,Wunderground v.1.15,2013-02-01 21:55:00,
2013-02-01 16:56:00,25.1,7.2,29.93,NNW,346,11.0,18.0,46,0.00,,,0.00,Wunderground v.1.15,2013-02-01 21:56:00,
2013-02-01 16:58:00,25.0,6.6,29.93,NNW,347,5.0,18.0,45,0.00,,,0.00,Wunderground v.1.15,2013-02-01 21:58:00,
2013-02-01 17:00:00,24.8,6.4,29.93,NNW,335,6.0,8.0,45,0.00,,,0.00,Wunderground v.1.15,2013-02-01 22:00:00,
2013-02-01 17:01:00,24.8,6.4,29.93,NNW,347,9.0,10.0,45,0.00,,,0.00,Wunderground v.1.15,2013-02-01 22:01:00,
2013-02-01 17:04:00,24.6,6.3,29.93,North,352,14.0,16.0,45,0.00,,,0.00,Wunderground v.1.15,2013-02-01 22:04:00,
2013-02-01 17:05:00,24.6,6.7,29.93,North,358,19.0,19.0,46,0.00,,,0.00,Wunderground v.1.15,2013-02-01 22:05:00,
2013-02-01 17:06:00,24.5,6.6,29.93,NE,37,7.0,19.0,46,0.00,,,0.00,Wunderground v.1.15,2013-02-01 22:06:00,
2013-02-01 17:09:00,24.4,7.0,29.93,NNW,343,4.0,19.0,47,0.00,,,0.00,Wunderground v.1.15,2013-02-01 22:09:00,
2013-02-01 17:10:00,24.4,6.6,29.94,NNW,338,4.0,8.0,46,0.00,,,0.00,Wunderground v.1.15,2013-02-01 22:10:00,
2013-02-01 17:12:00,24.3,6.9,29.94,NNW,343,9.0,9.0,47,0.00,,,0.00,Wunderground v.1.15,2013-02-01 22:12:00,
2013-02-01 17:14:00,24.3,6.5,29.94,ENE,62,7.0,14.0,46,0.00,,,0.00,Wunderground v.1.15,2013-02-01 22:14:00,
2013-02-01 17:15:00,24.2,6.4,29.94,NW,323,6.0,19.0,46,0.00,,,0.00,Wunderground v.1.15,2013-02-01 22:15:00,
2013-02-01 17:17:00,24.2,6.8,29.94,NNW,335,9.0,19.0,47,0.00,,,0.00,Wunderground v.1.15,2013-02-01 22:17:00,
2013-02-01 17:19:00,24.1,6.7,29.94,North,1,5.0,19.0,47,0.00,,,0.00,Wunderground v.1.15,2013-02-01 22:19:00,
2013-02-01 17:20:00,24.1,6.7,29.94,NNW,340,4.0,9.0,47,0.00,,,0.00,Wunderground v.1.15,2013-02-01 22:20:00,
2013-02-01 17:22:00,24.0,6.7,29.95,North,1,7.0,9.0,47,0.00,,,0.00,Wunderground v.1.15,2013-02-01 22:22:00,
2013-02-01 17:24:00,23.9,7.0,29.95,North,355,9.0,9.0,48,0.00,,,0.00,Wunderground v.1.15,2013-02-01 22:24:00,
2013-02-01 17:25:00,23.8,6.9,29.95,North,5,3.0,9.0,48,0.00,,,0.00,Wunderground v.1.15,2013-02-01 22:25:00,
2013-02-01 17:26:00,23.8,6.9,29.95,NE,45,3.0,9.0,48,0.00,,,0.00,Wunderground v.1.15,2013-02-01 22:26:00,
2013-02-01 17:27:00,23.8,6.5,29.95,North,11,10.0,18.0,47,0.00,,,0.00,Wunderground v.1.15,2013-02-01 22:27:00,
2013-02-01 17:29:00,23.8,6.5,29.95,North,352,4.0,18.0,47,0.00,,,0.00,Wunderground v.1.15,2013-02-01 22:29:00,
2013-02-01 17:31:00,23.8,6.9,29.95,NNW,338,9.0,10.0,48,0.00,,,0.00,Wunderground v.1.15,2013-02-01 22:31:00,
2013-02-01 17:33:00,23.8,6.5,29.95,NNW,340,6.0,12.0,47,0.00,,,0.00,Wunderground v.1.15,2013-02-01 22:33:00,
2013-02-01 17:34:00,23.8,6.9,29.96,North,352,6.0,12.0,48,0.00,,,0.00,Wunderground v.1.15,2013-02-01 22:34:00,
2013-02-01 17:36:00,23.8,6.9,29.96,NNE,18,5.0,12.0,48,0.00,,,0.00,Wunderground v.1.15,2013-02-01 22:36:00,
2013-02-01 17:38:00,23.8,6.9,29.96,North,356,5.0,12.0,48,0.00,,,0.00,Wunderground v.1.15,2013-02-01 22:38:00,
2013-02-01 17:40:00,23.8,6.9,29.96,NNW,328,11.0,11.0,48,0.00,,,0.00,Wunderground v.1.15,2013-02-01 22:40:00,
2013-02-01 17:42:00,23.8,6.9,29.96,NW,309,3.0,15.0,48,0.00,,,0.00,Wunderground v.1.15,2013-02-01 22:42:00,
2013-02-01 17:43:00,23.8,6.9,29.96,NW,320,3.0,15.0,48,0.00,,,0.00,Wunderground v.1.15,2013-02-01 22:43:00,
2013-02-01 17:45:00,23.8,6.5,29.97,NNE,16,3.0,15.0,47,0.00,,,0.00,Wunderground v.1.15,2013-02-01 22:45:00,
2013-02-01 17:47:00,23.8,6.9,29.97,NNW,348,6.0,15.0,48,0.00,,,0.00,Wunderground v.1.15,2013-02-01 22:47:00,
2013-02-01 17:48:00,23.8,6.9,29.97,North,358,8.0,15.0,48,0.00,,,0.00,Wunderground v.1.15,2013-02-01 22:48:00,
2013-02-01 17:50:00,23.8,6.9,29.97,North,4,4.0,6.0,48,0.00,,,0.00,Wunderground v.1.15,2013-02-01 22:50:00,
2013-02-01 17:52:00,23.7,6.8,29.97,NNW,345,3.0,8.0,48,0.00,,,0.00,Wunderground v.1.15,2013-02-01 22:52:00,
2013-02-01 17:53:00,23.7,6.4,29.97,NNW,342,8.0,8.0,47,0.00,,,0.00,Wunderground v.1.15,2013-02-01 22:53:00,
2013-02-01 17:55:00,23.6,6.8,29.98,NNW,335,2.0,10.0,48,0.00,,,0.00,Wunderground v.1.15,2013-02-01 22:55:00,
2013-02-01 17:57:00,23.6,6.8,29.98,NW,323,2.0,10.0,48,0.00,,,0.00,Wunderground v.1.15,2013-02-01 22:57:00,
2013-02-01 17:58:00,23.6,6.8,29.98,North,360,5.0,10.0,48,0.00,,,0.00,Wunderground v.1.15,2013-02-01 22:58:00,
2013-02-01 18:00:00,23.5,6.7,29.98,North,8,2.0,6.0,48,0.00,,,0.00,Wunderground v.1.15,2013-02-01 23:00:00,
2013-02-01 18:02:00,23.5,7.1,29.99,NNW,330,1.0,6.0,49,0.00,,,0.00,Wunderground v.1.15,2013-02-01 23:02:00,
2013-02-01 18:03:00,23.4,7.0,29.98,NNW,327,1.0,6.0,49,0.00,,,0.00,Wunderground v.1.15,2013-02-01 23:03:00,
2013-02-01 18:06:00,23.4,6.6,29.99,NNE,18,3.0,16.0,48,0.00,,,0.00,Wunderground v.1.15,2013-02-01 23:06:00,
2013-02-01 18:07:00,23.4,6.6,29.99,NNW,344,8.0,16.0,48,0.00,,,0.00,Wunderground v.1.15,2013-02-01 23:07:00,
2013-02-01 18:08:00,23.4,6.6,29.99,North,357,5.0,16.0,48,0.00,,,0.00,Wunderground v.1.15,2013-02-01 23:08:00,
2013-02-01 18:09:00,23.4,6.6,29.99,North,5,7.0,16.0,48,0.00,,,0.00,Wunderground v.1.15,2013-02-01 23:09:00,
2013-02-01 18:11:00,23.4,6.6,29.99,NNW,340,5.0,11.0,48,0.00,,,0.00,Wunderground v.1.15,2013-02-01 23:11:00,
2013-02-01 18:12:00,23.4,7.0,29.99,NNW,339,4.0,11.0,49,0.00,,,0.00,Wunderground v.1.15,2013-02-01 23:12:00,
2013-02-01 18:13:00,23.4,7.0,30.00,North,352,9.0,12.0,49,0.00,,,0.00,Wunderground v.1.15,2013-02-01 23:13:00,
2013-02-01 18:14:00,23.4,7.0,29.99,NNE,26,5.0,12.0,49,0.00,,,0.00,Wunderground v.1.15,2013-02-01 23:14:00,
2013-02-01 18:16:00,23.3,6.9,30.00,NNW,335,7.0,17.0,49,0.00,,,0.00,Wunderground v.1.15,2013-02-01 23:16:00,
2013-02-01 18:17:00,23.3,6.5,30.00,North,8,13.0,17.0,48,0.00,,,0.00,Wunderground v.1.15,2013-02-01 23:17:00,
2013-02-01 18:18:00,23.3,6.9,30.00,WNW,288,1.0,17.0,49,0.00,,,0.00,Wunderground v.1.15,2013-02-01 23:18:00,
2013-02-01 18:19:00,23.2,6.8,30.00,NNW,347,4.0,17.0,49,0.00,,,0.00,Wunderground v.1.15,2013-02-01 23:19:00,
2013-02-01 18:21:00,23.2,6.8,30.00,NNW,345,9.0,12.0,49,0.00,,,0.00,Wunderground v.1.15,2013-02-01 23:21:00,
2013-02-01 18:22:00,23.1,6.7,30.00,North,1,5.0,12.0,49,0.00,,,0.00,Wunderground v.1.15,2013-02-01 23:22:00,
2013-02-01 18:24:00,23.1,6.7,30.00,NNW,345,6.0,12.0,49,0.00,,,0.00,Wunderground v.1.15,2013-02-01 23:24:00,
2013-02-01 18:26:00,23.0,6.7,30.00,NE,44,10.0,15.0,49,0.00,,,0.00,Wunderground v.1.15,2013-02-01 23:26:00,
2013-02-01 18:28:00,23.0,7.1,30.00,NW,319,12.0,15.0,50,0.00,,,0.00,Wunderground v.1.15,2013-02-01 23:28:00,
2013-02-01 18:29:00,22.9,6.6,30.01,NNW,336,8.0,15.0,49,0.00,,,0.00,Wunderground v.1.15,2013-02-01 23:29:00,
2013-02-01 18:31:00,22.9,6.6,30.01,NNW,348,7.0,18.0,49,0.00,,,0.00,Wunderground v.1.15,2013-02-01 23:31:00,
2013-02-01 18:33:00,22.9,6.6,30.01,NNW,339,4.0,18.0,49,0.00,,,0.00,Wunderground v.1.15,2013-02-01 23:33:00,
2013-02-01 18:34:00,22.8,6.9,30.01,North,6,4.0,18.0,50,0.00,,,0.00,Wunderground v.1.15,2013-02-01 23:34:00,
2013-02-01 18:36:00,22.7,6.8,30.01,NNW,336,6.0,18.0,50,0.00,,,0.00,Wunderground v.1.15,2013-02-01 23:36:00,
2013-02-01 18:38:00,22.5,6.6,30.02,North,350,7.0,18.0,50,0.00,,,0.00,Wunderground v.1.15,2013-02-01 23:38:00,
2013-02-01 18:39:00,22.5,6.6,30.01,NNW,340,11.0,18.0,50,0.00,,,0.00,Wunderground v.1.15,2013-02-01 23:39:00,
2013-02-01 18:42:00,22.5,6.6,30.02,NW,320,6.0,13.0,50,0.00,,,0.00,Wunderground v.1.15,2013-02-01 23:42:00,
2013-02-01 18:43:00,22.5,7.1,30.02,North,352,10.0,19.0,51,0.00,,,0.00,Wunderground v.1.15,2013-02-01 23:43:00,
2013-02-01 18:44:00,22.5,6.6,30.02,NNW,340,4.0,19.0,50,0.00,,,0.00,Wunderground v.1.15,2013-02-01 23:44:00,
2013-02-01 18:47:00,22.5,6.6,30.02,NNW,337,5.0,19.0,50,0.00,,,0.00,Wunderground v.1.15,2013-02-01 23:47:00,
2013-02-01 18:49:00,22.5,7.1,30.02,North,11,4.0,19.0,51,0.00,,,0.00,Wunderground v.1.15,2013-02-01 23:49:00,
2013-02-01 18:50:00,22.4,7.0,30.03,NNW,332,3.0,7.0,51,0.00,,,0.00,Wunderground v.1.15,2013-02-01 23:50:00,
2013-02-01 18:52:00,22.3,6.9,30.03,NW,316,3.0,7.0,51,0.00,,,0.00,Wunderground v.1.15,2013-02-01 23:52:00,
2013-02-01 18:54:00,22.1,7.1,30.03,NNW,338,3.0,7.0,52,0.00,,,0.00,Wunderground v.1.15,2013-02-01 23:54:00,
2013-02-01 18:55:00,22.1,7.1,30.03,ENE,73,1.0,7.0,52,0.00,,,0.00,Wunderground v.1.15,2013-02-01 23:55:00,
2013-02-01 18:57:00,22.0,7.0,30.03,NNW,347,4.0,11.0,52,0.00,,,0.00,Wunderground v.1.15,2013-02-01 23:57:00,
2013-02-01 18:59:00,21.9,6.9,30.03,North,350,8.0,11.0,52,0.00,,,0.00,Wunderground v.1.15,2013-02-01 23:59:00,
2013-02-01 19:00:00,22.0,7.0,30.03,North,6,9.0,12.0,52,0.00,,,0.00,Wunderground v.1.15,2013-02-02 00:00:00,
2013-02-01 19:02:00,22.0,7.0,30.03,North,5,7.0,13.0,52,0.00,,,0.00,Wunderground v.1.15,2013-02-02 00:02:00,
2013-02-01 19:04:00,22.0,7.0,30.03,NE,37,5.0,13.0,52,0.00,,,0.00,Wunderground v.1.15,2013-02-02 00:04:00,
2013-02-01 19:05:00,22.0,7.0,30.03,NNW,335,6.0,13.0,52,0.00,,,0.00,Wunderground v.1.15,2013-02-02 00:05:00,
2013-02-01 19:07:00,22.0,6.6,30.03,North,6,6.0,16.0,51,0.00,,,0.00,Wunderground v.1.15,2013-02-02 00:07:00,
2013-02-01 19:09:00,22.0,6.6,30.03,NNW,339,6.0,16.0,51,0.00,,,0.00,Wunderground v.1.15,2013-02-02 00:09:00,
2013-02-01 19:10:00,22.0,6.6,30.04,North,360,4.0,7.0,51,0.00,,,0.00,Wunderground v.1.15,2013-02-02 00:10:00,
2013-02-01 19:12:00,22.0,6.6,30.04,North,356,9.0,14.0,51,0.00,,,0.00,Wunderground v.1.15,2013-02-02 00:12:00,
2013-02-01 19:15:00,22.0,6.6,30.04,North,11,7.0,15.0,51,0.00,,,0.00,Wunderground v.1.15,2013-02-02 00:15:00,
2013-02-01 19:18:00,21.9,6.5,30.04,NNE,20,3.0,15.0,51,0.00,,,0.00,Wunderground v.1.15,2013-02-02 00:18:00,
2013-02-01 19:20:00,21.9,6.5,30.04,NNE,30,8.0,8.0,51,0.00,,,0.00,Wunderground v.1.15,2013-02-02 00:20:00,
2013-02-01 19:23:00,21.9,6.5,30.04,NW,320,9.0,14.0,51,0.00,,,0.00,Wunderground v.1.15,2013-02-02 00:23:00,
2013-02-01 19:25:00,21.9,6.5,30.04,North,349,17.0,17.0,51,0.00,,,0.00,Wunderground v.1.15,2013-02-02 00:25:00,
2013-02-01 19:28:00,21.9,6.5,30.05,NNE,18,7.0,17.0,51,0.00,,,0.00,Wunderground v.1.15,2013-02-02 00:28:00,
2013-02-01 19:30:00,21.9,6.5,30.05,North,350,10.0,20.0,51,0.00,,,0.00,Wunderground v.1.15,2013-02-02 00:30:00,
2013-02-01 19:33:00,21.8,6.4,30.05,North,3,14.0,20.0,51,0.00,,,0.00,Wunderground v.1.15,2013-02-02 00:33:00,
2013-02-01 19:35:00,21.8,6.4,30.05,NNW,338,12.0,20.0,51,0.00,,,0.00,Wunderground v.1.15,2013-02-02 00:35:00,
2013-02-01 19:36:00,21.8,6.4,30.05,NNW,346,9.0,20.0,51,0.00,,,0.00,Wunderground v.1.15,2013-02-02 00:36:00,
2013-02-01 19:38:00,21.7,5.9,30.05,NE,35,2.0,20.0,50,0.00,,,0.00,Wunderground v.1.15,2013-02-02 00:38:00,
2013-02-01 19:40:00,21.7,5.9,30.05,NW,311,6.0,10.0,50,0.00,,,0.00,Wunderground v.1.15,2013-02-02 00:40:00,
2013-02-01 19:41:00,21.7,5.9,30.05,NNW,339,6.0,10.0,50,0.00,,,0.00,Wunderground v.1.15,2013-02-02 00:41:00,
2013-02-01 19:43:00,21.6,6.2,30.06,NNW,330,5.0,19.0,51,0.00,,,0.00,Wunderground v.1.15,2013-02-02 00:43:00,
2013-02-01 19:45:00,21.6,5.8,30.06,NNE,18,2.0,19.0,50,0.00,,,0.00,Wunderground v.1.15,2013-02-02 00:45:00,
2013-02-01 19:46:00,21.6,5.8,30.06,NNE,13,10.0,19.0,50,0.00,,,0.00,Wunderground v.1.15,2013-02-02 00:46:00,
2013-02-01 19:49:00,21.5,6.1,30.06,NNW,347,7.0,19.0,51,0.00,,,0.00,Wunderground v.1.15,2013-02-02 00:49:00,
2013-02-01 19:50:00,21.5,6.1,30.06,NW,325,11.0,13.0,51,0.00,,,0.00,Wunderground v.1.15,2013-02-02 00:50:00,
2013-02-01 19:51:00,21.5,6.1,30.06,NNE,25,9.0,13.0,51,0.00,,,0.00,Wunderground v.1.15,2013-02-02 00:51:00,
2013-02-01 19:54:00,21.4,6.0,30.06,NW,326,7.0,16.0,51,0.00,,,0.00,Wunderground v.1.15,2013-02-02 00:54:00,
2013-02-01 19:56:00,21.3,6.0,30.06,NE,47,7.0,16.0,51,0.00,,,0.00,Wunderground v.1.15,2013-02-02 00:56:00,
2013-02-01 19:59:00,21.3,6.0,30.06,NW,316,11.0,16.0,51,0.00,,,0.00,Wunderground v.1.15,2013-02-02 00:59:00,
2013-02-01 20:01:00,21.2,5.9,30.07,NNE,32,5.0,14.0,51,0.00,,,0.00,Wunderground v.1.15,2013-02-02 01:01:00,
2013-02-01 20:04:00,21.2,5.9,30.06,NNW,346,5.0,23.0,51,0.00,,,0.00,Wunderground v.1.15,2013-02-02 01:04:00,
2013-02-01 20:06:00,21.2,5.4,30.07,North,360,11.0,23.0,50,0.00,,,0.00,Wunderground v.1.15,2013-02-02 01:06:00,
2013-02-01 20:09:00,21.1,5.3,30.07,NNW,345,9.0,23.0,50,0.00,,,0.00,Wunderground v.1.15,2013-02-02 01:09:00,
2013-02-01 20:11:00,21.1,5.3,30.07,NNW,340,7.0,12.0,50,0.00,,,0.00,Wunderground v.1.15,2013-02-02 01:11:00,
2013-02-01 20:12:00,21.1,5.3,30.07,NNW,342,12.0,12.0,50,0.00,,,0.00,Wunderground v.1.15,2013-02-02 01:12:00,
2013-02-01 20:14:00,21.1,5.3,30.07,NW,312,4.0,16.0,50,0.00,,,0.00,Wunderground v.1.15,2013-02-02 01:14:00,
2013-02-01 20:17:00,21.1,5.3,30.07,North,9,4.0,20.0,50,0.00,,,0.00,Wunderground v.1.15,2013-02-02 01:17:00,
2013-02-01 20:18:00,21.1,5.3,30.07,NNW,333,4.0,20.0,50,0.00,,,0.00,Wunderground v.1.15,2013-02-02 01:18:00,
2013-02-01 20:19:00,21.0,5.2,30.08,NW,311,3.0,20.0,50,0.00,,,0.00,Wunderground v.1.15,2013-02-02 01:19:00,
2013-02-01 20:22:00,20.9,5.2,30.08,NNW,328,7.0,15.0,50,0.00,,,0.00,Wunderground v.1.15,2013-02-02 01:22:00,
2013-02-01 20:23:00,20.9,5.2,30.08,NNW,338,6.0,15.0,50,0.00,,,0.00,Wunderground v.1.15,2013-02-02 01:23:00,
2013-02-01 20:25:00,20.8,5.1,30.08,North,8,10.0,18.0,50,0.00,,,0.00,Wunderground v.1.15,2013-02-02 01:25:00,
2013-02-01 20:27:00,20.8,5.1,30.08,NNW,335,6.0,18.0,50,0.00,,,0.00,Wunderground v.1.15,2013-02-02 01:27:00,
2013-02-01 20:28:00,20.8,5.1,30.08,NNW,343,3.0,18.0,50,0.00,,,0.00,Wunderground v.1.15,2013-02-02 01:28:00,
2013-02-01 20:31:00,20.8,5.1,30.08,North,353,8.0,10.0,50,0.00,,,0.00,Wunderground v.1.15,2013-02-02 01:31:00,
2013-02-01 20:32:00,20.8,5.1,30.08,North,357,10.0,13.0,50,0.00,,,0.00,Wunderground v.1.15,2013-02-02 01:32:00,
2013-02-01 20:33:00,20.7,5.0,30.08,NNE,19,6.0,18.0,50,0.00,,,0.00,Wunderground v.1.15,2013-02-02 01:33:00,
2013-02-01 20:36:00,20.7,5.0,30.08,NNW,337,5.0,18.0,50,0.00,,,0.00,Wunderground v.1.15,2013-02-02 01:36:00,
2013-02-01 20:37:00,20.6,4.9,30.08,North,11,5.0,18.0,50,0.00,,,0.00,Wunderground v.1.15,2013-02-02 01:37:00,
2013-02-01 20:38:00,20.6,4.9,30.08,North,349,12.0,18.0,50,0.00,,,0.00,Wunderground v.1.15,2013-02-02 01:38:00,
2013-02-01 20:41:00,20.6,4.9,30.09,NNW,335,5.0,9.0,50,0.00,,,0.00,Wunderground v.1.15,2013-02-02 01:41:00,
2013-02-01 20:42:00,20.6,4.9,30.09,NNW,342,3.0,9.0,50,0.00,,,0.00,Wunderground v.1.15,2013-02-02 01:42:00,
2013-02-01 20:43:00,20.6,4.9,30.08,NNE,25,8.0,14.0,50,0.00,,,0.00,Wunderground v.1.15,2013-02-02 01:43:00,
2013-02-01 20:46:00,20.6,4.4,30.09,NE,37,4.0,14.0,49,0.00,,,0.00,Wunderground v.1.15,2013-02-02 01:46:00,
2013-02-01 20:47:00,20.6,4.9,30.09,NNE,23,11.0,14.0,50,0.00,,,0.00,Wunderground v.1.15,2013-02-02 01:47:00,
2013-02-01 20:48:00,20.6,4.4,30.09,ENE,63,8.0,14.0,49,0.00,,,0.00,Wunderground v.1.15,2013-02-02 01:48:00,
2013-02-01 20:49:00,20.6,4.4,30.09,North,11,2.0,14.0,49,0.00,,,0.00,Wunderground v.1.15,2013-02-02 01:49:00,
2013-02-01 20:51:00,20.5,4.3,30.09,NNW,342,8.0,15.0,49,0.00,,,0.00,Wunderground v.1.15,2013-02-02 01:51:00,
2013-02-01 20:52:00,20.5,4.3,30.09,NNE,23,8.0,15.0,49,0.00,,,0.00,Wunderground v.1.15,2013-02-02 01:52:00,
2013-02-01 20:53:00,20.5,4.3,30.09,NNW,348,10.0,15.0,49,0.00,,,0.00,Wunderground v.1.15,2013-02-02 01:53:00,
2013-02-01 20:54:00,20.5,4.3,30.09,NNW,333,7.0,15.0,49,0.00,,,0.00,Wunderground v.1.15,2013-02-02 01:54:00,
2013-02-01 20:57:00,20.5,4.3,30.09,North,10,12.0,25.0,49,0.00,,,0.00,Wunderground v.1.15,2013-02-02 01:57:00,
2013-02-01 20:58:00,20.5,4.3,30.09,North,354,8.0,25.0,49,0.00,,,0.00,Wunderground v.1.15,2013-02-02 01:58:00,
2013-02-01 20:59:00,20.5,4.3,30.10,NNE,15,9.0,25.0,49,0.00,,,0.00,Wunderground v.1.15,2013-02-02 01:59:00,
2013-02-01 21:02:00,20.4,4.2,30.10,NNE,13,4.0,10.0,49,0.00,,,0.00,Wunderground v.1.15,2013-02-02 02:02:00,
2013-02-01 21:03:00,20.4,4.2,30.10,NNW,339,3.0,10.0,49,0.00,,,0.00,Wunderground v.1.15,2013-02-02 02:03:00,
2013-02-01 21:04:00,20.3,4.2,30.10,NNW,333,2.0,10.0,49,0.00,,,0.00,Wunderground v.1.15,2013-02-02 02:04:00,
2013-02-01 21:07:00,20.2,4.1,30.10,North,355,4.0,12.0,49,0.00,,,0.00,Wunderground v.1.15,2013-02-02 02:07:00,
2013-02-01 21:08:00,20.2,4.1,30.10,NNW,345,2.0,12.0,49,0.00,,,0.00,Wunderground v.1.15,2013-02-02 02:08:00,
2013-02-01 21:09:00,20.2,4.5,30.10,North,352,4.0,12.0,50,0.00,,,0.00,Wunderground v.1.15,2013-02-02 02:09:00,
2013-02-01 21:12:00,20.1,4.4,30.10,NNW,338,1.0,9.0,50,0.00,,,0.00,Wunderground v.1.15,2013-02-02 02:12:00,
2013-02-01 21:13:00,20.1,4.4,30.10,NNW,333,4.0,9.0,50,0.00,,,0.00,Wunderground v.1.15,2013-02-02 02:13:00,
2013-02-01 21:14:00,20.0,4.3,30.10,North,352,5.0,10.0,50,0.00,,,0.00,Wunderground v.1.15,2013-02-02 02:14:00,
2013-02-01 21:17:00,19.9,4.7,30.10,North,350,5.0,11.0,51,0.00,,,0.00,Wunderground v.1.15,2013-02-02 02:17:00,
2013-02-01 21:18:00,19.9,4.7,30.10,NNE,23,4.0,11.0,51,0.00,,,0.00,Wunderground v.1.15,2013-02-02 02:18:00,
2013-02-01 21:20:00,19.9,4.7,30.10,NNE,20,4.0,11.0,51,0.00,,,0.00,Wunderground v.1.15,2013-02-02 02:20:00,
2013-02-01 21:22:00,19.8,4.6,30.10,NW,315,6.0,8.0,51,0.00,,,0.00,Wunderground v.1.15,2013-02-02 02:22:00,
2013-02-01 21:23:00,19.8,4.6,30.10,North,8,5.0,8.0,51,0.00,,,0.00,Wunderground v.1.15,2013-02-02 02:23:00,
2013-02-01 21:25:00,19.8,4.6,30.10,NNW,347,8.0,8.0,51,0.00,,,0.00,Wunderground v.1.15,2013-02-02 02:25:00,
2013-02-01 21:28:00,19.8,4.6,30.10,North,10,9.0,11.0,51,0.00,,,0.00,Wunderground v.1.15,2013-02-02 02:28:00,
2013-02-01 21:30:00,19.8,4.6,30.10,NNW,329,6.0,12.0,51,0.00,,,0.00,Wunderground v.1.15,2013-02-02 02:30:00,
2013-02-01 21:33:00,19.7,4.5,30.10,NNE,21,4.0,13.0,51,0.00,,,0.00,Wunderground v.1.15,2013-02-02 02:33:00,
2013-02-01 21:34:00,19.7,4.9,30.10,NNW,342,3.0,13.0,52,0.00,,,0.00,Wunderground v.1.15,2013-02-02 02:34:00,
2013-02-01 21:36:00,19.7,4.5,30.10,NNE,16,3.0,13.0,51,0.00,,,0.00,Wunderground v.1.15,2013-02-02 02:36:00,
2013-02-01 21:38:00,19.7,4.9,30.10,North,352,10.0,13.0,52,0.00,,,0.00,Wunderground v.1.15,2013-02-02 02:38:00,
2013-02-01 21:39:00,19.6,4.8,30.10,North,354,4.0,13.0,52,0.00,,,0.00,Wunderground v.1.15,2013-02-02 02:39:00,
2013-02-01 21:41:00,19.5,4.7,30.10,NNE,23,3.0,10.0,52,0.00,,,0.00,Wunderground v.1.15,2013-02-02 02:41:00,
2013-02-01 21:43:00,19.5,5.1,30.10,WNW,300,4.0,10.0,53,0.00,,,0.00,Wunderground v.1.15,2013-02-02 02:43:00,
2013-02-01 21:44:00,19.5,5.1,30.10,NNE,33,2.0,10.0,53,0.00,,,0.00,Wunderground v.1.15,2013-02-02 02:44:00,
2013-02-01 21:46:00,19.4,5.0,30.11,NNW,345,6.0,10.0,53,0.00,,,0.00,Wunderground v.1.15,2013-02-02 02:46:00,
2013-02-01 21:48:00,19.4,5.0,30.11,NNW,348,6.0,10.0,53,0.00,,,0.00,Wunderground v.1.15,2013-02-02 02:48:00,
2013-02-01 21:49:00,19.4,5.0,30.11,NW,326,5.0,10.0,53,0.00,,,0.00,Wunderground v.1.15,2013-02-02 02:49:00,
2013-02-01 21:51:00,19.4,5.0,30.11,North,358,2.0,8.0,53,0.00,,,0.00,Wunderground v.1.15,2013-02-02 02:51:00,
2013-02-01 21:53:00,19.4,5.0,30.11,NNE,14,4.0,14.0,53,0.00,,,0.00,Wunderground v.1.15,2013-02-02 02:53:00,
2013-02-01 21:55:00,19.5,5.1,30.11,ENE,60,3.0,14.0,53,0.00,,,0.00,Wunderground v.1.15,2013-02-02 02:55:00,
2013-02-01 21:56:00,19.4,5.4,30.11,NNW,340,2.0,14.0,54,0.00,,,0.00,Wunderground v.1.15,2013-02-02 02:56:00,
2013-02-01 21:58:00,19.4,5.4,30.11,North,349,9.0,14.0,54,0.00,,,0.00,Wunderground v.1.15,2013-02-02 02:58:00,
2013-02-01 22:00:00,19.4,5.0,30.11,NNW,345,5.0,5.0,53,0.00,,,0.00,Wunderground v.1.15,2013-02-02 03:00:00,
2013-02-01 22:01:00,19.4,5.4,30.11,North,352,1.0,6.0,54,0.00,,,0.00,Wunderground v.1.15,2013-02-02 03:01:00,
2013-02-01 22:03:00,19.4,5.4,30.11,NW,316,3.0,8.0,54,0.00,,,0.00,Wunderground v.1.15,2013-02-02 03:03:00,
2013-02-01 22:05:00,19.3,5.3,30.11,NNW,343,3.0,8.0,54,0.00,,,0.00,Wunderground v.1.15,2013-02-02 03:05:00,
2013-02-01 22:07:00,19.3,5.3,30.11,NW,326,2.0,8.0,54,0.00,,,0.00,Wunderground v.1.15,2013-02-02 03:07:00,
2013-02-01 22:09:00,19.2,5.3,30.11,NNW,327,6.0,8.0,54,0.00,,,0.00,Wunderground v.1.15,2013-02-02 03:09:00,
2013-02-01 22:10:00,19.2,5.3,30.11,NNW,339,4.0,6.0,54,0.00,,,0.00,Wunderground v.1.15,2013-02-02 03:10:00,
2013-02-01 22:12:00,19.2,5.7,30.11,North,353,6.0,8.0,55,0.00,,,0.00,Wunderground v.1.15,2013-02-02 03:12:00,
2013-02-01 22:14:00,19.1,5.6,30.11,NNW,328,2.0,8.0,55,0.00,,,0.00,Wunderground v.1.15,2013-02-02 03:14:00,
2013-02-01 22:15:00,19.1,5.6,30.11,NNW,341,4.0,8.0,55,0.00,,,0.00,Wunderground v.1.15,2013-02-02 03:15:00,
2013-02-01 22:17:00,19.0,5.5,30.11,NNE,13,4.0,8.0,55,0.00,,,0.00,Wunderground v.1.15,2013-02-02 03:17:00,
2013-02-01 22:19:00,19.0,5.5,30.11,North,9,6.0,8.0,55,0.00,,,0.00,Wunderground v.1.15,2013-02-02 03:19:00,
2013-02-01 22:20:00,19.0,5.5,30.11,NNW,342,4.0,6.0,55,0.00,,,0.00,Wunderground v.1.15,2013-02-02 03:20:00,
2013-02-01 22:21:00,19.0,5.5,30.11,North,349,5.0,6.0,55,0.00,,,0.00,Wunderground v.1.15,2013-02-02 03:21:00,
2013-02-01 22:23:00,19.0,5.5,30.12,NNW,327,4.0,10.0,55,0.00,,,0.00,Wunderground v.1.15,2013-02-02 03:23:00,
2013-02-01 22:24:00,19.0,5.5,30.12,North,356,2.0,10.0,55,0.00,,,0.00,Wunderground v.1.15,2013-02-02 03:24:00,
2013-02-01 22:26:00,19.0,5.5,30.12,North,4,6.0,10.0,55,0.00,,,0.00,Wunderground v.1.15,2013-02-02 03:26:00,
2013-02-01 22:28:00,19.0,5.9,30.12,NNW,328,6.0,12.0,56,0.00,,,0.00,Wunderground v.1.15,2013-02-02 03:28:00,
2013-02-01 22:30:00,18.9,5.8,30.12,NNW,340,5.0,5.0,56,0.00,,,0.00,Wunderground v.1.15,2013-02-02 03:30:00,
2013-02-01 22:31:00,19.0,5.9,30.12,North,349,6.0,6.0,56,0.00,,,0.00,Wunderground v.1.15,2013-02-02 03:31:00,
2013-02-01 22:32:00,18.9,5.8,30.12,NNW,342,4.0,6.0,56,0.00,,,0.00,Wunderground v.1.15,2013-02-02 03:32:00,
2013-02-01 22:33:00,18.9,5.8,30.12,NNW,336,6.0,10.0,56,0.00,,,0.00,Wunderground v.1.15,2013-02-02 03:33:00,
2013-02-01 22:35:00,19.0,5.9,30.12,North,11,6.0,10.0,56,0.00,,,0.00,Wunderground v.1.15,2013-02-02 03:35:00,
2013-02-01 22:36:00,18.9,6.2,30.12,NNW,345,5.0,10.0,57,0.00,,,0.00,Wunderground v.1.15,2013-02-02 03:36:00,
2013-02-01 22:37:00,18.9,6.2,30.12,NNE,21,6.0,10.0,57,0.00,,,0.00,Wunderground v.1.15,2013-02-02 03:37:00,
2013-02-01 22:38:00,18.9,6.2,30.12,North,351,7.0,10.0,57,0.00,,,0.00,Wunderground v.1.15,2013-02-02 03:38:00,
2013-02-01 22:40:00,18.9,6.2,30.13,NNW,343,2.0,5.0,57,0.00,,,0.00,Wunderground v.1.15,2013-02-02 03:40:00,
2013-02-01 22:41:00,18.9,6.2,30.13,NNW,337,8.0,8.0,57,0.00,,,0.00,Wunderground v.1.15,2013-02-02 03:41:00,
2013-02-01 22:42:00,18.9,6.2,30.13,NNW,337,4.0,9.0,57,0.00,,,0.00,Wunderground v.1.15,2013-02-02 03:42:00,
2013-02-01 22:43:00,18.9,6.2,30.13,NW,309,1.0,9.0,57,0.00,,,0.00,Wunderground v.1.15,2013-02-02 03:43:00,
2013-02-01 22:45:00,18.9,6.5,30.13,NNW,343,3.0,9.0,58,0.00,,,0.00,Wunderground v.1.15,2013-02-02 03:45:00,
2013-02-01 22:46:00,18.9,6.5,30.13,NNW,332,3.0,9.0,58,0.00,,,0.00,Wunderground v.1.15,2013-02-02 03:46:00,
2013-02-01 22:47:00,18.8,6.4,30.13,NNE,31,8.0,9.0,58,0.00,,,0.00,Wunderground v.1.15,2013-02-02 03:47:00,
2013-02-01 22:48:00,18.8,6.4,30.13,NNW,338,8.0,9.0,58,0.00,,,0.00,Wunderground v.1.15,2013-02-02 03:48:00,
2013-02-01 22:50:00,18.8,6.8,30.13,NNW,337,3.0,6.0,59,0.00,,,0.00,Wunderground v.1.15,2013-02-02 03:50:00,
2013-02-01 22:51:00,18.8,6.8,30.13,NNW,347,6.0,6.0,59,0.00,,,0.00,Wunderground v.1.15,2013-02-02 03:51:00,
2013-02-01 22:52:00,18.8,6.4,30.13,NNE,18,3.0,6.0,58,0.00,,,0.00,Wunderground v.1.15,2013-02-02 03:52:00,
2013-02-01 22:53:00,18.7,6.7,30.13,North,350,5.0,7.0,59,0.00,,,0.00,Wunderground v.1.15,2013-02-02 03:53:00,
2013-02-01 22:56:00,18.8,6.8,30.13,NNW,345,6.0,7.0,59,0.00,,,0.00,Wunderground v.1.15,2013-02-02 03:56:00,
2013-02-01 22:57:00,18.8,6.8,30.12,NW,316,1.0,7.0,59,0.00,,,0.00,Wunderground v.1.15,2013-02-02 03:57:00,
2013-02-01 22:58:00,18.8,6.8,30.12,North,360,3.0,7.0,59,0.00,,,0.00,Wunderground v.1.15,2013-02-02 03:58:00,
2013-02-01 23:01:00,18.7,6.7,30.13,NE,34,4.0,7.0,59,0.00,,,0.00,Wunderground v.1.15,2013-02-02 04:01:00,
2013-02-01 23:03:00,18.7,6.7,30.13,North,6,11.0,11.0,59,0.00,,,0.00,Wunderground v.1.15,2013-02-02 04:03:00,
2013-02-01 23:04:00,18.7,6.7,30.13,North,349,4.0,11.0,59,0.00,,,0.00,Wunderground v.1.15,2013-02-02 04:04:00,
2013-02-01 23:06:00,18.8,6.8,30.13,North,354,5.0,11.0,59,0.00,,,0.00,Wunderground v.1.15,2013-02-02 04:06:00,
2013-02-01 23:08:00,18.7,6.7,30.13,NNE,25,5.0,11.0,59,0.00,,,0.00,Wunderground v.1.15,2013-02-02 04:08:00,
2013-02-01 23:09:00,18.7,6.7,30.13,NNW,338,1.0,11.0,59,0.00,,,0.00,Wunderground v.1.15,2013-02-02 04:09:00,
2013-02-01 23:11:00,18.7,7.1,30.13,NNW,346,3.0,8.0,60,0.00,,,0.00,Wunderground v.1.15,2013-02-02 04:11:00,
2013-02-01 23:13:00,18.7,7.1,30.13,NNW,345,1.0,8.0,60,0.00,,,0.00,Wunderground v.1.15,2013-02-02 04:13:00,
2013-02-01 23:14:00,18.7,7.1,30.13,NNE,25,3.0,8.0,60,0.00,,,0.00,Wunderground v.1.15,2013-02-02 04:14:00,
2013-02-01 23:16:00,18.7,7.1,30.13,North,355,3.0,8.0,60,0.00,,,0.00,Wunderground v.1.15,2013-02-02 04:16:00,
2013-02-01 23:17:00,18.6,7.0,30.13,NNW,333,4.0,8.0,60,0.00,,,0.00,Wunderground v.1.15,2013-02-02 04:17:00,
2013-02-01 23:18:00,18.6,7.0,30.13,NNW,337,1.0,8.0,60,0.00,,,0.00,Wunderground v.1.15,2013-02-02 04:18:00,
2013-02-01 23:19:00,18.6,7.0,30.13,North,352,3.0,8.0,60,0.00,,,0.00,Wunderground v.1.15,2013-02-02 04:19:00,
2013-02-01 23:21:00,18.5,6.9,30.13,North,350,4.0,5.0,60,0.00,,,0.00,Wunderground v.1.15,2013-02-02 04:21:00,
2013-02-01 23:22:00,18.5,6.9,30.13,NW,320,3.0,9.0,60,0.00,,,0.00,Wunderground v.1.15,2013-02-02 04:22:00,
2013-02-01 23:23:00,18.5,7.3,30.13,NNW,328,3.0,9.0,61,0.00,,,0.00,Wunderground v.1.15,2013-02-02 04:23:00,
2013-02-01 23:24:00,18.5,7.3,30.13,NW,326,2.0,9.0,61,0.00,,,0.00,Wunderground v.1.15,2013-02-02 04:24:00,
2013-02-01 23:27:00,18.4,7.2,30.13,North,350,5.0,9.0,61,0.00,,,0.00,Wunderground v.1.15,2013-02-02 04:27:00,
2013-02-01 23:28:00,18.4,7.2,30.13,NNW,341,4.0,9.0,61,0.00,,,0.00,Wunderground v.1.15,2013-02-02 04:28:00,
2013-02-01 23:29:00,18.4,7.2,30.13,North,1,6.0,9.0,61,0.00,,,0.00,Wunderground v.1.15,2013-02-02 04:29:00,
2013-02-01 23:32:00,18.5,7.3,30.13,NNW,333,2.0,4.0,61,0.00,,,0.00,Wunderground v.1.15,2013-02-02 04:32:00,
2013-02-01 23:33:00,18.5,7.3,30.13,WNW,302,5.0,5.0,61,0.00,,,0.00,Wunderground v.1.15,2013-02-02 04:33:00,
2013-02-01 23:34:00,18.4,7.2,30.13,North,355,6.0,6.0,61,0.00,,,0.00,Wunderground v.1.15,2013-02-02 04:34:00,
2013-02-01 23:37:00,18.5,7.3,30.13,NW,319,4.0,9.0,61,0.00,,,0.00,Wunderground v.1.15,2013-02-02 04:37:00,
2013-02-01 23:38:00,18.5,7.3,30.13,North,359,5.0,9.0,61,0.00,,,0.00,Wunderground v.1.15,2013-02-02 04:38:00,
2013-02-01 23:39:00,18.5,6.9,30.13,NW,322,6.0,9.0,60,0.00,,,0.00,Wunderground v.1.15,2013-02-02 04:39:00,
2013-02-01 23:42:00,18.6,7.0,30.13,NNW,328,2.0,12.0,60,0.00,,,0.00,Wunderground v.1.15,2013-02-02 04:42:00,
2013-02-01 23:43:00,18.6,7.0,30.13,NNW,333,3.0,12.0,60,0.00,,,0.00,Wunderground v.1.15,2013-02-02 04:43:00,
2013-02-01 23:44:00,18.6,7.0,30.13,NNW,328,4.0,12.0,60,0.00,,,0.00,Wunderground v.1.15,2013-02-02 04:44:00,
2013-02-01 23:47:00,18.5,7.3,30.13,North,352,12.0,14.0,61,0.00,,,0.00,Wunderground v.1.15,2013-02-02 04:47:00,
2013-02-01 23:48:00,18.5,7.3,30.13,North,349,9.0,14.0,61,0.00,,,0.00,Wunderground v.1.15,2013-02-02 04:48:00,
2013-02-01 23:49:00,18.6,7.0,30.13,NNW,330,5.0,14.0,60,0.00,,,0.00,Wunderground v.1.15,2013-02-02 04:49:00,
2013-02-01 23:50:00,18.6,7.0,30.13,NNW,331,1.0,14.0,60,0.00,,,0.00,Wunderground v.1.15,2013-02-02 04:50:00,
2013-02-01 23:53:00,18.6,7.0,30.13,North,359,11.0,13.0,60,0.00,,,0.00,Wunderground v.1.15,2013-02-02 04:53:00,
2013-02-01 23:54:00,18.7,7.1,30.13,NNW,348,4.0,13.0,60,0.00,,,0.00,Wunderground v.1.15,2013-02-02 04:54:00,
2013-02-01 23:55:00,18.7,7.1,30.13,NNW,338,7.0,13.0,60,0.00,,,0.00,Wunderground v.1.15,2013-02-02 04:55:00,
2013-02-01 23:58:00,18.7,7.1,30.14,North,356,4.0,13.0,60,0.00,,,0.00,Wunderground v.1.15,2013-02-02 04:58:00,
2013-02-01 23:59:00,18.7,7.1,30.14,North,356,3.0,13.0,60,0.00,,,0.00,Wunderground v.1.15,2013-02-02 04:59:00,